forum | videos | results | calendar | photos | high school | store | news | columns | resources | college | event coverage | Interviews
» Welcome to Michigan's Best Source for Running Information.» Click for our FEATURED CALENDAR RACES!
RMDC Videos

Komen Northwest Ohio Race for the Cure Sep 25, 2011 | Views :: 3181
Toledo, OH
Provided by Gault Race Mgt. Comments

Susan G. Komen Northwest Ohio Race for the Cure
September 25, 2011
Toledo, Michigan
5K RUN RESULTS

MALE OVERALL WINNER
Place No. Name Age City St Time Pace
===== ===== ====================== === =============== == ======= =====
1 5011 Jesse Henkel 18 Lambertville MI 16:43 5:23


FEMALE OVERALL WINNER
Place No. Name Age City St Time Pace
===== ===== ====================== === =============== == ======= =====
1 5807 Danielle Sidell 23 Wakeman OH 19:26 6:16


SURVIVOR MALE OVERALL WINNER
Place No. Name Age City St Time Pace
===== ===== ====================== === =============== == ======= =====
1 228 Thomas Boese 22 Perrysburg OH 22:15 7:10
2 212 Amarjit Luniwal 33 Toledo OH 25:55 8:21
3 269 Dane Theisen 23 Toledo OH 38:57 12:33

SURVIVOR FEMALE OVERALL WINNER
Place No. Name Age City St Time Pace
===== ===== ====================== === =============== == ======= =====
1 240 Denine Cramer 47 Napoleon OH 24:21 7:50
2 225 Angie Thetford 48 Maumee OH 25:07 8:05
3 223 Lori Miller 44 Toledo OH 25:27 8:12

MALE MASTERS WINNER (40+)
Place No. Name Age City St Time Pace
===== ===== ====================== === =============== == ======= =====
1 7083 Herman Burmeister 47 Toledo OH 20:07 6:29

FEMALE MASTERS WINNER (40+)
Place No. Name Age City St Time Pace
===== ===== ====================== === =============== == ======= =====
1 4958 Becky Mincheff 48 Oregon OH 19:43 6:21

SURVIVOR MALE MASTERS WINNER (40+)
Place No. Name Age City St Time Pace
===== ===== ====================== === =============== == ======= =====
1 226 Dan Barga 52 Sylvania OH 1:01:07 19:41

SURVIVOR FEMALE MASTERS WINNER (40+)
Place No. Name Age City St Time Pace
===== ===== ====================== === =============== == ======= =====
1 267 Janet George 67 Toledo OH 25:30 8:13


SURVIVOR FEMALE SENIOR MASTERS WINNER (60+)
Place No. Name Age City St Time Pace
===== ===== ====================== === =============== == ======= =====
1 211 Sandra Konz 60 Sylvania OH 27:56 9:00



MALE AGE GROUP: 1-14
Place No. Name Age City St Time Pace
===== ===== ====================== === =============== == ======= =====
1 6155 Brandon Avers 14 Bowling Green OH 17:20 5:35
2 5486 Sam Rush 14 Toledo OH 19:26 6:15
3 4223 Matthew Baker 14 Liberty Center OH 20:05 6:28
4 7261 Joshua Yeager 13 Toledo OH 21:14 6:50
5 5827 Mitchell Kaiser 13 Toledo OH 21:45 7:00
6 6781 Jhon Rosser 14 Perrysburg OH 21:47 7:01
7 6628 Brad Rhegness 11 Toledo OH 22:29 7:15
8 6775 Darcy Cavanagh 12 Perrysburg OH 22:32 7:16
9 6490 Jacob Hodge 14 Whitehouse OH 22:40 7:18
10 7079 Sam Scherer 11 Bowling Green OH 22:50 7:21
11 7289 Evan Austin 14 Rossford OH 22:51 7:21
12 6144 Dominic Ciucci 11 Sylvania OH 23:21 7:31
13 6270 Robbie Gilsdorf 13 Swanton OH 23:38 7:37
14 6082 Andrew Flowers 11 Toledo OH 24:00 7:44
15 5058 Patrick Gorman 12 Toledo OH 24:01 7:44
16 6053 Nate Lagger 14 Waterville OH 24:09 7:47
17 7071 Sean Hoeft 10 Martin OH 24:17 7:49
18 4384 Alex White 12 Perrysburg OH 24:21 7:51
19 6764 Devin Cavanagh 8 Perrysburg OH 24:32 7:54
20 4378 Brandon Wireman 12 Erie MI 24:37 7:56
21 7291 Cole Frankart 14 Toledo OH 25:24 8:11
22 5188 Ty Smith 8 Temperance MI 25:31 8:13
23 6735 Brady Young 9 Perrysburg OH 25:31 8:13
24 6542 Nate Suntken 14 Wauseon OH 25:32 8:14
25 6293 Jacob Scally 13 Toledo OH 25:48 8:18
26 6338 Zachary Scally 9 Toledo OH 25:48 8:19
27 5485 Dawson Booth 9 Oregon OH 25:48 8:19
28 5139 Zak Smith 11 Temperance MI 25:58 8:22
29 6143 Jack Bartholomew 10 Perrysburg OH 26:05 8:24
30 6743 Shane Riley 10 Sylvania OH 26:25 8:31
31 7147 Cameron Niswander 13 Bowling Green OH 26:38 8:35
32 4825 Austin Riffer 14 Perrysburg OH 26:39 8:35
33 6254 Samuel Avina 13 Sylvania OH 27:00 8:42
34 5978 Liam Cooper 13 Toledo OH 27:04 8:43
35 6253 Dominic Adduci 12 Temperance MI 27:06 8:44
36 6335 Vince Adduci 11 Temperance MI 27:06 8:44
37 5307 Jack Herrmann 13 Sylvania OH 27:18 8:48
38 4725 Chase Brown 12 Monclova OH 27:25 8:50
39 5694 Evan Abdoo 13 Fremont OH 27:26 8:50
40 5804 David Price 13 Waterville OH 27:29 8:51
41 6516 Brenden McMurray 13 Toledo OH 27:55 8:59
42 5994 Matthew Dick 14 Whitehouse OH 27:58 9:00
43 6515 Shawn McMurray 12 Toledo OH 27:58 9:00
44 5204 Ben Dubielak 14 Toledo OH 28:00 9:01
45 6992 Max Denman 10 Maumee OH 28:07 9:03
46 6737 Matthew Dewitz 9 Oak Harbor OH 28:27 9:10
47 4994 Scott Jednak-Kasunic 14 Toledo OH 28:32 9:11
48 7191 Robert Lawson 13 Toledo OH 28:41 9:14
49 5572 Luke Koury 13 Toledo OH 29:19 9:26
50 6241 Conor Segur 12 Monclova OH 29:29 9:30
51 6971 Davis Fray 12 Whitehouse OH 29:32 9:31
52 7098 Joey Stancey 11 Lambertville MI 29:32 9:31
53 6340 Anthony Adduci 6 Temperance MI 29:48 9:36
54 7172 Trenton Betts 12 Waterville OH 29:55 9:38
55 7173 Mitchell Betts 14 Waterville OH 29:55 9:38
56 6993 Brandon Rife 13 Holland OH 30:02 9:40
57 7260 Jackson Bean 8 Toledo OH 30:04 9:41
58 4372 Ethan Pendry 10 Perrysburg OH 30:20 9:46
59 6083 Joseph Fritz 11 Maumee OH 30:25 9:48
60 7125 Hudson Smith 9 Perrysburg OH 30:47 9:55
61 6740 Cole Hudson 10 Perrysburg OH 30:48 9:55
62 7066 Kyle Killian 13 Toledo OH 30:49 9:55
63 5192 Quinlan White 10 Perrysburg OH 30:51 9:56
64 5979 Jimmy Fuleky 9 Morenci MI 30:55 9:57
65 6345 Teegan Smith 7 Toledo OH 30:57 9:58
66 5583 Todd Newmister 13 Genoa OH 31:12 10:03
67 4366 Drew Double 9 Morenci MI 31:18 10:05
68 5700 Andrew Shadle 9 Sylvania OH 31:25 10:07
69 7255 Jarett Cook 10 Morenci MI 31:34 10:10
70 4377 Donovan Vitale 10 Monroe MI 31:43 10:13
71 5397 Will Monegan 12 Sylvania OH 31:58 10:18
72 4373 Griffin Pendry 10 Perrysburg OH 32:09 10:21
73 4036 Brent Kahle 14 Ottawa OH 32:17 10:24
74 6337 Christian Ramirez 10 Toledo OH 32:23 10:26
75 6339 Cameron Swiger 6 Whitehouse OH 32:35 10:30
76 5488 Owen Hildebrand 6 Waterville OH 32:36 10:30
77 5704 Robbie Thomason 7 Perrysburg OH 33:25 10:46
78 6996 Jaiden Harrel 13 Sylvania OH 33:25 10:46
79 4376 Trevor Vitale 8 Monroe MI 33:43 10:52
80 4292 Grant Volschow 14 Genoa OH 33:53 10:55
81 4149 Tyler Kahle 12 Ottawa OH 33:58 10:56
82 6739 Jax Hudson 8 Perrysburg OH 34:10 11:00
83 6738 Alex Holmes 8 Toledo OH 34:14 11:01
84 6236 Logan Ramirez 13 Toledo OH 35:00 11:16
85 7268 J.T. Hoffman 12 Sylvania OH 35:06 11:18
86 6147 Chad McCarthy 10 Monroe MI 35:10 11:19
87 6151 Andrew McCarthy 7 Monroe MI 35:46 11:31
88 6146 Jack Fowler 11 Walled Lake MI 36:01 11:36
89 5846 Brandon Myers 13 Metamora OH 37:23 12:02
90 5698 Caleigh McHugh 11 Toledo OH 37:36 12:07
91 6500 Jacob Kramb 12 Findlay OH 37:37 12:07
92 6111 Connor Sweeney 10 Toledo OH 37:53 12:12
93 5630 Andrew Hoppenjans 11 Toledo OH 37:53 12:12
94 5697 Joey Hoppenjans 8 Toledo OH 37:55 12:12
95 6783 Damian Bondelier 13 Maumee OH 39:04 12:35
96 6782 Dylan Borton 14 Perrysburg OH 39:05 12:35
97 6605 Shawn Lillich 11 Northwood OH 41:21 13:19
98 5588 Joey Oehlers 12 Lambertville MI 42:36 13:43
99 7041 Alexander Peseckis 10 Toledo OH 42:57 13:50
100 7014 Haydn Smith 11 Perrysburg OH 43:51 14:07
101 5095 Tyler Weber 13 Bowling Green OH 46:59 15:08
102 4118 Brendan Farley 10 Berkey OH 48:06 15:29
103 5803 Luke Pawlak 11 Sylvania OH 1:07:27 21:43
104 5184 Nathan Langlais 9 Toledo OH 1:10:31 22:42
105 6343 Logan Mierzejewski 10 Toledo OH 1:15:00 24:09
106 7107 Kenton Davey 13 Toledo OH 1:15:10 24:12
107 6626 Dan Reilly 14 Toledo OH 1:19:08 25:29



FEMALE AGE GROUP: 1-14
Place No. Name Age City St Time Pace
===== ===== ====================== === =============== == ======= =====
1 7088 Jenna Kill 11 Sylvania OH 22:04 7:06
2 6307 Brionnah Wyse 14 Perrysburg OH 22:13 7:09
3 5652 Courtney Thebes 13 Sylvania OH 22:28 7:14
4 6905 Abby Hauck 11 Toledo OH 22:37 7:17
5 6728 Emma Dempsey 13 Adrian MI 22:42 7:19
6 7148 Landon Zura 12 Bowling Green OH 22:43 7:19
7 6142 Caroline Bartholomew 13 Perrysburg OH 23:06 7:26
8 5284 Vanessa Warton 13 Northwood OH 23:37 7:37
9 6809 Samantha Hirsch 9 Sylvania OH 23:53 7:41
10 7116 MacKenzie Guenin 14 Toledo OH 23:59 7:44
11 6927 Emily Spackey 10 Perrysburg OH 24:00 7:44
12 5262 Alexis Hansen 14 Walbridge OH 24:28 7:53
13 5190 Meradith Wisniewski 11 Oregon OH 24:30 7:53
14 7281 Morgan Swcrlein 13 Perrysburg OH 24:30 7:53
15 5183 Shannon Herrmann 10 Sylvania OH 24:43 7:58
16 6072 Abbie Bacon 14 Toledo OH 24:47 7:59
17 5789 Erika Joldrichsen 13 Perrysburg OH 24:50 8:00
18 6730 Tatum Krupp 10 Bowling Green OH 24:57 8:02
19 7238 McKenzie Shoots 11 Toledo OH 25:18 8:09
20 6277 Megan Johnson 12 Toledo OH 25:19 8:09
21 5303 Pillar Booth 11 Oregon OH 25:22 8:10
22 5305 Aubrey Duhaime 7 Perrysburg OH 25:32 8:14
23 5128 Jenna Palmer 12 Adrian MI 25:45 8:18
24 4993 Bridget Siebenaller 11 Toledo OH 25:47 8:18
25 4235 Cameron Clark 12 Perrysburg OH 25:47 8:18
26 5273 Sami Paul 13 Maumee OH 25:54 8:20
27 6642 Madison Sheahan 14 Curtice OH 26:06 8:25
28 5118 Lauren Kohler 14 Sylvania OH 26:10 8:26
29 6484 Kathrine Grumm 14 Sylvania OH 26:10 8:26
30 6579 Maddie Flagg 13 Waterville OH 26:37 8:34
31 7136 Bethany Glowacki 13 Perrysburg OH 26:42 8:36
32 4535 Rylee Fredericksen 9 Curtice OH 26:43 8:36
33 5105 Anna Birkemeier 12 Waterville OH 26:49 8:38
34 4503 Katelyn McKown 14 Sylvania OH 26:51 8:39
35 5264 Megan Kupetz 14 Sylvania OH 27:07 8:44
36 4821 Alexis Kruse 12 Defiance OH 27:11 8:45
37 7239 Riley Shoots 10 Toledo OH 27:13 8:46
38 5114 Rachel Gorman 10 Toledo OH 27:36 8:53
39 5801 Kylie Nienow 14 Bowling Green OH 27:44 8:56
40 6655 Molly Walton 13 Perrysburg OH 27:50 8:58
41 4816 Sarah Boyk 13 Toledo OH 27:50 8:58
42 5187 Alli Smith 10 Temperance MI 27:55 8:59
43 5699 Grace Petrie 12 Perrysburg OH 28:10 9:04
44 5280 Taylor Schunk 12 Toledo OH 28:11 9:05
45 7176 Alexa Keller 13 Oregon OH 28:14 9:06
46 4946 Kayla Caswell 12 Whitehouse OH 28:14 9:06
47 7012 Molly Bennett 10 Holland OH 28:29 9:10
48 7024 Miranda Sullivan 8 Maumee OH 28:35 9:12
49 5434 Jessica Conrad 14 Monroe MI 28:41 9:14
50 6465 Sarah Demczuk 9 Maumee OH 28:43 9:15
51 6233 Marlaina Ondrus 13 Perrysburg OH 28:57 9:20
52 6284 Katie Menke 13 Perrysburg OH 28:58 9:20
53 5116 Allie Kemp 13 Perrysburg OH 28:58 9:20
54 6792 Julia Webb 9 Bowling Green OH 29:01 9:21
55 4432 Josie Wielinski 14 Waterville OH 29:04 9:22
56 4675 Mary Bahr 14 Waterville OH 29:10 9:24
57 5637 Brittany Lindrup 14 Whitehouse OH 29:11 9:24
58 7011 Annie Bennett 8 Holland OH 29:11 9:24
59 6030 Abigail Ciucci 13 Sylvania OH 29:12 9:24
60 4383 Julia Loeb 10 Toledo OH 29:36 9:32
61 4112 Livvy Dill 14 Bowling Green OH 29:42 9:34
62 6620 Priscilla Perez 14 Bowling Green OH 29:43 9:34
63 5792 Camryn Kiel 14 Perrysburg OH 29:49 9:36
64 5982 Jada Fuleky 7 Morenci MI 29:50 9:36
65 5800 Taylor Mundwiler 13 Toledo OH 29:50 9:37
66 5117 Elissa Knipp 13 Elmore OH 29:59 9:39
67 5137 Brooke Servick 13 Elmore OH 30:00 9:40
68 4408 Liz Koenig 12 Elmore OH 30:00 9:40
69 4403 Hailey Snyder 14 Toledo OH 30:01 9:40
70 5119 Megan Koralewski 13 Toledo OH 30:02 9:40
71 6942 Haley Boehm 13 Toledo OH 30:02 9:40
72 6285 Emily Miller 13 Maumee OH 30:03 9:41
73 6286 Amy Miller 14 Maumee OH 30:04 9:41
74 6344 Emily Smith 13 Toledo OH 30:10 9:43
75 4379 Abby Yeager 12 Toledo OH 30:14 9:44
76 6104 Megan Semler 14 Toledo OH 30:20 9:46
77 4374 Samantha Sieler 10 Monroe MI 30:22 9:47
78 6272 McKenzie Gunner 13 Maumee OH 30:24 9:47
79 5872 MacEy Feldstein 13 Sylvania OH 30:27 9:48
80 7119 Kalyn Ciborowski 7 Oregon OH 30:47 9:55
81 7124 Hope Smith 5 Perrysburg OH 30:47 9:55
82 5482 Abby Monegan 10 Sylvania OH 30:50 9:56
83 4606 Cara Brosius 14 Bowling Green OH 31:04 10:00
84 4732 Anna Hanson 14 Bowling Green OH 31:05 10:01
85 4543 Josee Clayton 13 Perrysburg OH 31:07 10:01
86 6632 Matty Rollo 13 Pemberville OH 31:07 10:01
87 5487 Meghan Vandenbroek 10 Sylvania OH 31:08 10:02
88 5458 Taylor Vandenbroek 12 Sylvania OH 31:16 10:04
89 5635 Olivia Koury 14 Toledo OH 31:19 10:05
90 7266 Dean Deante 10 Toledo OH 31:27 10:08
91 5483 Alexa Sheahan 13 Curtice OH 31:28 10:08
92 7250 Erin Fankhauser 13 Holland OH 31:51 10:15
93 6930 Josie Fowler 13 Perrysburg OH 32:11 10:22
94 6731 Autumn Maher 12 Perrysburg OH 32:12 10:22
95 7271 Morgan Bzovi 14 Wauseon OH 32:12 10:22
96 6148 Olivia Braden 14 Toledo OH 32:24 10:26
97 6152 Abbey Zdrojewski 14 Toledo OH 32:25 10:26
98 6609 Shannon McGill 14 Bowling Green OH 32:34 10:29
99 6931 Celia Fowler 8 Perrysburg OH 33:03 10:38
100 4973 Sara Young 12 Sylvania OH 33:16 10:43
101 5701 Ashley Thomason 11 Perrysburg OH 33:24 10:46
102 6258 Alexa Below 12 Toledo OH 33:29 10:47
103 7161 Samantha Hill 14 Temperance MI 33:40 10:51
104 7113 Nora Mollenkopt 14 Delta OH 33:40 10:51
105 7112 Mallory Vild 13 Toledo OH 33:41 10:51
106 4241 Elizabeth Dalrymple 11 Ottawa OH 33:50 10:54
107 4295 Kayla Wehri 14 Ottawa OH 33:52 10:54
108 6817 Elizabeth Flemmings 6 Temperance MI 34:00 10:57
109 5484 Nicole Wygant 10 Sylvania OH 34:01 10:57
110 6978 Kelsey King 7 Sylvania OH 34:13 11:01
111 6342 Ginger Graham 11 Toledo OH 34:32 11:07
112 4234 Casey Clark 8 Perrysburg OH 34:47 11:12
113 4458 Madison Amborski 13 Toledo OH 34:53 11:14
114 5981 Molly Forgach 8 Sylvania OH 35:14 11:21
115 6990 Hope Teggart 14 Bowling Green OH 35:18 11:22
116 6461 Maria Cramer-Kirkpat 14 Columbus OH 36:36 11:47
117 4132 Allison Graeff 14 Toledo OH 37:01 11:55
118 6729 Julia Gagnet 11 Maumee OH 37:15 12:00
119 4274 Madeline Pendry 14 Perrysburg OH 37:24 12:03
120 6292 Lauren Savanyu 12 South Lyon MI 37:29 12:04
121 6195 Kaitlyn Savanyu 9 South Lyon MI 37:33 12:06
122 4367 Dominique Double 9 Morenci MI 37:49 12:11
123 5282 Taylor Spurgeon-Hess 12 Sylvania OH 37:57 12:13
124 6661 Addison Young 13 Perrysburg OH 38:18 12:20
125 6179 Ashley Konz 7 Sylvania OH 38:32 12:25
126 5702 Carmela Castaneda 7 Defiance OH 39:03 12:34
127 6559 Leah Arnsby 14 Toledo OH 39:07 12:36
128 6283 Jessica Menke 11 Perrysburg OH 40:32 13:03
129 4398 Angelique Franks 14 Wayne OH 41:57 13:31
130 5304 Ashley Brinkman 7 Weston OH 42:57 13:50
131 6796 Maya Emmons 9 Toledo OH 43:04 13:52
132 5185 Lexi Servick 11 Elmore OH 44:45 14:24
133 5828 Anika Heams 6 Lambertville MI 45:03 14:30
134 5189 Tessa Weber 10 Bowling Green OH 51:12 16:29
135 6076 Marissa Digby 8 Tiffin OH 53:01 17:04
136 5481 Kylie Brinkman 9 Weston OH 56:15 18:07
137 5703 Brenden Shadle 7 Sylvania OH 59:14 19:04
138 5020 Paige Langlais 12 Toledo OH 1:10:29 22:41
139 5802 Abbey Pawlak 14 Sylvania OH 1:14:10 23:53
140 6261 Jacky Bonivel 14 Waterville OH 1:17:35 24:59
141 4538 Elena Allred 6 Toledo OH 1:20:15 25:50
142 5626 Baily Hertzfeld 14 Whitehouse OH 1:22:18 26:30
143 6660 Peyten Young 14 Perrysburg OH 1:31:15 29:22
144 6445 Rachelle Young 11 Perrysburg OH 1:31:15 29:23



MALE AGE GROUP: 15-19
Place No. Name Age City St Time Pace
===== ===== ====================== === =============== == ======= =====
1 6235 Kaleb Perez 16 Woodville OH 18:15 5:53
2 5742 Tyler Hulbert 19 Petersburg MI 18:22 5:55
3 6238 Clayton Rice 17 Maumee OH 18:25 5:56
4 7236 Cory Fink 16 Toledo OH 18:30 5:58
5 5907 Dillon Coburn 15 Toledo OH 19:03 6:08
6 5912 Patrick Dahlin 15 Livonia MI 19:10 6:11
7 5182 Will Henkel 15 Lambertville MI 19:17 6:13
8 6733 Alex Newberg 15 Monclova OH 19:23 6:15
9 6221 Nate Gillette 16 Holland OH 19:40 6:20
10 7217 Sean Harold 18 Toledo OH 19:51 6:24
11 5755 Jordan Moul 15 Maumee OH 19:51 6:24
12 5725 David Upham 17 Maumee OH 20:01 6:27
13 6206 Phillip Zamarripa 15 Bowling Green OH 20:05 6:28
14 5360 Dillon Bogner 16 Gibsonburg OH 20:23 6:34
15 6451 Parker Bayer 18 Toledo OH 20:26 6:35
16 7117 Zachary Guenin 18 Toledo OH 20:29 6:36
17 7277 Nick Placko 19 Toledo OH 20:31 6:36
18 4982 Daniel Siebenaller 15 Toledo OH 20:54 6:44
19 6563 Gavan Benadum 19 Genoa OH 21:14 6:50
20 6543 Ty Suntken 15 Wauseon OH 21:16 6:51
21 5365 Casey Conine 17 Walbridge OH 21:18 6:52
22 7275 Kenny MacAuley 19 Toledo OH 21:21 6:52
23 6759 Griffin Oehlers 19 Holland OH 21:22 6:53
24 6085 Sean Harger 15 Northwood OH 21:30 6:56
25 5067 Max Lydum 15 Defiance OH 21:32 6:56
26 5083 Will Selhorst 15 Columbus Grove OH 21:43 7:00
27 5771 Kevin Upham 16 Maumee OH 21:46 7:01
28 6976 Travis Johnson 18 Whitehouse OH 22:11 7:09
29 4496 Steve Graver 19 Perrysburg OH 22:23 7:13
30 4093 Ryan Bixler 17 Maumee OH 22:23 7:13
31 5870 Casey Delaney 17 Perrysburg OH 22:29 7:14
32 5754 Connor Moul 17 Maumee OH 22:31 7:15
33 6919 Austin Biy 16 Toledo OH 22:31 7:15
34 4575 Stewart Coffman 16 Genoa OH 22:42 7:19
35 5726 Jason Wanamaker 16 Maumee OH 22:49 7:21
36 5099 Cody Wisniewski 17 Oregon OH 23:04 7:26
37 4913 Christian Young 15 Sylvania OH 23:06 7:27
38 4917 Elijah Bijarro 19 Toledo OH 23:12 7:28
39 7008 David Van Buren 19 Toledo OH 23:16 7:30
40 7169 Eric Hinkle 17 Toledo OH 23:55 7:42
41 4668 Dixon Stoddard 18 Perrysburg OH 24:30 7:54
42 7174 Alex Boraggina 16 Lambertville MI 24:31 7:54
43 7228 Chad Welch 15 Holland OH 24:31 7:54
44 4925 Noah Hartman 18 Toledo OH 24:42 7:57
45 7272 Collin Bzovi 17 Wauseon OH 24:54 8:01
46 4015 Dylan Dusza 15 Oregon OH 25:01 8:03
47 6066 Matthew Sutter 17 Rossford OH 25:29 8:13
48 5760 Phillip Price 17 Waterville OH 25:35 8:14
49 5380 Zachary Grohowski 17 Swanton OH 25:38 8:15
50 5418 Brian Vogtsberger 17 Maumee OH 25:42 8:17
51 4822 Albert Liu 17 Novi MI 25:42 8:17
52 4997 Carter Bayer 19 Toledo OH 25:56 8:21
53 6033 Zachary Digby 15 Tiffin OH 26:02 8:23
54 5992 Emmanuel Clawson 15 Toledo OH 26:03 8:24
55 4462 Tyler Dominowski 18 Kalamazoo MI 26:06 8:24
56 5875 Trevor Heim 16 Maumee OH 26:11 8:26
57 4711 Jay Smith 15 Oregon OH 26:13 8:27
58 7121 Matt Lechner 19 Sylvania OH 26:27 8:31
59 5029 Christian Siebenaler 19 Toledo OH 26:28 8:31
60 6934 Michael Czerniakowski 17 Toledo OH 26:33 8:33
61 6038 Casey Flowers 15 Toledo OH 26:38 8:35
62 6456 Chad Campbell 19 Holland OH 26:50 8:38
63 5195 Dane Bailey 16 Holland OH 27:05 8:43
64 6058 Cameron McNamee 15 Sylvania OH 27:06 8:44
65 4678 Bryce Davis 15 Lambertville MI 27:09 8:45
66 5995 Steven Dick 16 Whitehouse OH 27:15 8:47
67 6494 Adam Kesselmayer 19 Toledo OH 27:17 8:47
68 5110 Scott Flowers 17 Toledo OH 27:20 8:48
69 7114 Alex Underwood 16 Toledo OH 27:26 8:50
70 4751 Bernie Somers 15 Tiffin OH 28:12 9:05
71 4873 Tyler Somerfelt 19 Stow OH 28:17 9:07
72 7028 Johny Nyuyen 16 Oregon OH 28:32 9:11
73 7019 Kacie Truss 18 Toledo OH 28:47 9:16
74 6786 Joseph Miekstyn 19 Ann Arbor MI 29:15 9:25
75 7156 Steven Burton 16 Toledo OH 29:16 9:25
76 6830 Gerald Valadez 16 Toledo OH 29:49 9:36
77 6882 Kevin Sawyer 19 Mentor OH 30:01 9:40
78 7256 Wyatt Cook 15 Morenci MI 30:23 9:47
79 6994 William Stewart 18 Lambertville MI 30:33 9:50
80 5749 Cameron Kaiser 15 Toledo OH 30:53 9:57
81 6485 Andrew Gstalder 15 Toledo OH 30:55 9:57
82 6316 Monty Morgan 17 Toledo OH 30:56 9:58
83 6312 Dominic Demarco 16 Sylvania OH 31:10 10:02
84 5069 Ian May 16 Maumee OH 31:33 10:10
85 7097 Dontae Pettaway 17 Toledo OH 31:50 10:15
86 5009 Brian Haidet 17 Sylvania OH 31:59 10:18
87 5424 Travis Wright 16 Maumee OH 32:02 10:19
88 4264 Derek Maag 15 Ottawa OH 32:17 10:24
89 6837 Anthony Eder 18 Cleveland OH 32:36 10:30
90 7128 Conner Richardson 19 Sylvania OH 32:46 10:33
91 6771 Hunter Rupp 19 Toledo OH 33:11 10:41
92 6177 Nick Kelsey 16 Toledo OH 33:19 10:44
93 4776 Nickolas Schmiesing 16 Columbus Grove OH 33:39 10:50
94 5779 Kelson Craigs 19 Toledo OH 34:37 11:09
95 4457 Jerry Amborski 19 Toledo OH 34:54 11:14
96 4423 Alexander Smith 15 Rossford OH 36:05 11:37
97 5576 Connor McHugh 17 Toledo OH 37:37 12:07
98 6361 Bryan Austy Davis 16 Toledo OH 37:53 12:12
99 6511 Paige McGill 16 Bowling Green OH 41:47 13:27
100 6410 Christian Porter 17 Maumee OH 43:50 14:07
101 7095 Daniel Montoya-Alvare 17 Toledo OH 56:53 18:19
102 6941 Sean Sullivan 16 Toledo OH 1:06:42 21:28
103 5174 Tyler Gorman 16 Toledo OH 1:10:44 22:46
104 6523 Bryant Philo 17 Northwood OH 1:12:40 23:24
105 6716 James Halsey 16 Toledo OH 1:31:48 29:33



FEMALE AGE GROUP: 15-19
Place No. Name Age City St Time Pace
===== ===== ====================== === =============== == ======= =====
1 5444 Jessica Glanz 17 Waterville OH 22:13 7:09
2 6984 Emily Wyrick 16 Perrysburg OH 23:27 7:33
3 6758 Daniel Giffin 18 Toledo OH 23:48 7:40
4 6108 Amber Soncrant 16 Northwood OH 24:11 7:47
5 4283 Kelsey Scherer 16 Toledo OH 24:12 7:48
6 6564 Jenelle Bevens 17 Sylvania OH 24:16 7:49
7 4502 Casey Lange 17 Westerville OH 24:37 7:56
8 5446 Ashley Ingle 15 Sylvania OH 24:45 7:58
9 4257 Rachael Jetson 18 Toledo OH 24:52 8:01
10 6592 Alyssa Heintschel 15 Oregon OH 25:32 8:13
11 6913 Kyla Sofo 16 Sylvania OH 26:00 8:23
12 5799 Katie Meyer 16 Maumee OH 26:11 8:26
13 6572 Erin Connell 17 Bowling Green OH 26:13 8:27
14 5607 Stephanie Bissonnette 19 Toledo OH 26:20 8:29
15 5084 Katie Shollenberger 18 Toledo OH 26:29 8:32
16 5120 Sarah Koralewski 16 Toledo OH 26:50 8:38
17 5133 Anne Redd 17 Temperance MI 26:55 8:40
18 7219 Katelyn Meyers 16 Toledo OH 27:02 8:42
19 5247 Erin Bishop 15 Sylvania OH 27:04 8:43
20 4473 Cammie Lonsway 15 Toledo OH 27:07 8:44
21 4472 Delaney Lonsway 17 Toledo OH 27:08 8:44
22 5787 Meagan Jamieson 15 Sylvania OH 27:14 8:46
23 5612 Rachel Bules 15 Sylvania OH 27:14 8:46
24 4818 Molly Desmond 19 Toledo OH 27:17 8:47
25 6295 Allison Sheehan 16 Toledo OH 27:27 8:51
26 4244 Jessica Dearmond 17 Maumee OH 27:31 8:52
27 4882 Jordan Giovannucci 17 Maumee OH 27:31 8:52
28 5112 Destiny Garn 17 Maumee OH 27:31 8:52
29 7143 Taylor Baugh 16 Morenci MI 27:39 8:54
30 6989 Katherine Teggart 17 Bowling Green OH 27:41 8:55
31 5245 Bridget Adams 19 Toledo OH 27:42 8:55
32 4284 Alexis Schultz 19 Rossford OH 27:48 8:57
33 6094 Phebie Mier 19 Petersburg MI 28:00 9:01
34 6061 Kelsi Omey 15 Sylvania OH 28:01 9:01
35 5808 Amber Smallman 15 Metamora OH 28:02 9:02
36 5658 Lauren Yurjevic 16 Sylvania OH 28:03 9:02
37 6077 Stephanie Duwve 16 Sylvania OH 28:04 9:02
38 6656 Miranda Wills 18 Wauseon OH 28:18 9:07
39 5606 Ashley Bielski 16 Sylvania OH 28:24 9:09
40 4714 Katharine Stoddard 15 Perrysburg OH 28:26 9:09
41 4488 MacKenzie Bell 16 Westerville OH 28:30 9:11
42 6107 Alex Smale 16 Monclova OH 28:35 9:12
43 5564 Maddy Huntley 16 Waterville OH 28:50 9:17
44 6948 Audrey White 16 Holland OH 28:54 9:19
45 5636 Paige Koury 16 Toledo OH 29:04 9:22
46 7052 Caitlin Gore 19 Lambertville MI 29:08 9:23
47 4490 Jana Cable 15 Bowling Green OH 29:12 9:24
48 5248 Courtney Brickner 15 Bowling Green OH 29:13 9:24
49 6113 Allie Windom 17 Monclova OH 29:19 9:26
50 6648 Jenna Stoner 17 Bowling Green OH 29:21 9:27
51 4969 Rachel Thees 15 Toledo OH 29:22 9:27
52 5916 Bailey Feldstein 17 Toledo OH 29:41 9:34
53 7166 Emily Green 18 Lambertville MI 29:42 9:34
54 5246 Tatum Bires 17 Toledo OH 29:44 9:35
55 5641 Karleigh Newmister 17 Genoa OH 30:11 9:43
56 7221 Santana Angela 17 Walbridge OH 30:13 9:44
57 7100 Erin Dewar 19 Perrysburg OH 30:28 9:49
58 4492 Courtney Davis 17 Temperance MI 30:32 9:50
59 4815 Emily Boyk 16 Toledo OH 31:04 10:00
60 4092 Josie Benson 15 Bowling Green OH 31:06 10:01
61 4260 Erin Kielmeyer 16 Bowling Green OH 31:06 10:01
62 4726 Julie Cross 17 Bowling Green OH 31:10 10:02
63 4109 Genna Danes 17 Perrysburg OH 31:13 10:03
64 5646 Shelby Rieger 17 Sylvania OH 31:22 10:06
65 5270 Kendall Murphy 16 Toledo OH 31:25 10:07
66 4625 Ashley Woods 18 Whitehouse OH 31:27 10:08
67 5134 Danielle Rice 19 Maumee OH 31:33 10:10
68 7129 Katarina Truss 19 Toledo OH 31:50 10:15
69 5791 Sydney Kiel 16 Perrysburg OH 31:53 10:16
70 4826 Alexis Riffer 16 Perrysburg OH 31:54 10:16
71 5405 Mariah Ramirez 17 Gibsonburg OH 31:58 10:18
72 266 Jamie Plocek 15 Monclova OH 32:13 10:22
73 7286 Amanda Dugan 16 Toledo OH 32:33 10:29
74 5052 Brittany Curtis 16 Bowling Green OH 32:35 10:30
75 5627 Taylor Hetrick 15 Bowling Green OH 32:45 10:33
76 6646 Bobbi Spradlein 15 Bowling Green OH 32:45 10:33
77 5809 Shay Smallman 16 Metamora OH 32:56 10:36
78 4608 Elizabeth Chaney 17 Perrysburg OH 33:15 10:43
79 5455 Taylor Swint 17 Toledo OH 33:29 10:47
80 5237 Haley Schmidt 17 Toledo OH 33:30 10:47
81 4742 Alecia Menke 17 Delphos OH 33:38 10:50
82 4263 Torey Loeb 15 Toledo OH 33:40 10:50
83 5427 Stacey Aberl 18 Toledo OH 34:07 10:59
84 5953 Laura Zielinski 19 Toledo OH 34:37 11:09
85 4938 Alyssa Schumacher 17 Toledo OH 34:39 11:09
86 6873 Hannah Lantzy 17 Tecumseh MI 34:59 11:16
87 7051 Lindsay Bain 16 Sylvania OH 35:09 11:19
88 6594 Kaylie Hodge 17 Whitehouse OH 35:12 11:20
89 6647 Olivia Stimmel 15 Bowling Green OH 35:19 11:22
90 6257 Amber Below 16 Toledo OH 35:37 11:28
91 6581 Alie Fretti 19 Toledo OH 35:46 11:31
92 5260 Julia Hage 18 Sylvania OH 36:04 11:37
93 6099 Lauren Quinlan 16 Lambertville MI 36:20 11:42
94 6575 Leah Cramer 17 Findlay OH 36:35 11:47
95 4743 Claire Minniear 15 Maumee OH 37:48 12:10
96 4736 Jessica Kolath 16 Toledo OH 38:07 12:16
97 7111 Jessica Rose 19 Toledo OH 38:23 12:21
98 6291 Sarah Rohen 15 Waterville OH 38:26 12:22
99 4857 Paige Cotterman 16 North Baltimore OH 38:28 12:23
100 5614 Hannah Creech 15 Sylvania OH 39:08 12:36
101 6573 Emily Cooper 17 Perrysburg OH 39:12 12:37
102 6662 Keleigh Zenz 16 Sylvania OH 39:52 12:50
103 5586 Shelby Oehlers 19 Lambertville MI 39:56 12:52
104 5436 Kaytlynn Csomos 15 Sylvania OH 40:10 12:56
105 6264 Sara Beth Collins 17 Toledo OH 40:24 13:01
106 6073 Carly Bonfiglio 17 Toledo OH 40:26 13:01
107 6957 Laila Jamaleddin 16 Toledo OH 41:00 13:12
108 6956 Sydney Schecklehoff 16 Perrysburg OH 41:00 13:12
109 5228 Kirstyn Harris 15 Bowling Green OH 41:47 13:27
110 6081 Kim Fisher 17 Toledo OH 43:18 13:57
111 6078 Arianna Dyer 16 Toledo OH 43:20 13:57
112 6607 Ashton Martin 16 Toledo OH 43:24 13:59
113 6527 Emma Rahn 16 Toledo OH 43:25 13:59
114 4861 Emily Gilstorff 18 Ypsilanti MI 43:47 14:06
115 6829 Brianna Rodriguez 19 Waterville OH 45:10 14:33
116 4949 Courtney Ellis 15 Toledo OH 48:02 15:28
117 7080 Asha Vasudeva 17 Bowling Green OH 49:54 16:04
118 7078 Galina Svetskya 16 Bowling Green OH 49:54 16:04
119 4600 Paige Swint 17 Sylvania OH 56:46 18:17
120 7096 Cassandra Bucklew 17 Toledo OH 56:53 18:19
121 4987 Estrella Rios 16 Toledo OH 1:00:48 19:35
122 6807 Allye Scott 17 Toledo OH 1:05:00 20:56
123 7167 Malinda Moore 16 Toledo OH 1:08:09 21:56
124 4779 Katie Waggoner 18 Holland OH 1:11:28 23:01
125 4727 Madyson Davis 15 Lambertville MI 1:11:32 23:02
126 6611 Stacy Molnar 19 Northwood OH 1:12:56 23:29
127 5876 Mary Herbers 19 Cincinnati OH 1:13:06 23:32
128 5930 Sara Napp 16 Sylvania OH 1:13:28 23:39
129 6625 Victoria Reilly 16 Toledo OH 1:19:09 25:29
130 6624 Rosie Reilly 17 Toledo OH 1:19:09 25:29
131 4160 Beth Ann Less 16 Holland OH 1:20:45 26:00
132 5122 Micaela Marshall 15 Maumee OH 1:26:19 27:47
133 6561 Claire Barbao 19 Toledo OH 1:28:43 28:33
134 4504 Christine Mominee 17 Williston OH 1:29:54 28:57



MALE AGE GROUP: 20-24
Place No. Name Age City St Time Pace
===== ===== ====================== === =============== == ======= =====
1 7283 Ryan Krobath 22 Bowling Green OH 17:37 5:41
2 4823 Ethan Millers 20 Novi MI 18:30 5:58
3 5445 Nick Glover 20 Toledo OH 18:55 6:06
4 7026 Robert Hall 22 Toledo OH 19:13 6:12
5 6552 Brad Wells 22 Toledo OH 19:36 6:19
6 5864 Jesse Benson 23 Toledo OH 19:50 6:23
7 4560 Keith Riffner 21 Bowling Green OH 20:07 6:29
8 5065 Jordan Lee 23 Toledo OH 20:17 6:32
9 7009 Zach Sandusky 22 Toledo OH 20:19 6:33
10 6006 Patrick James 23 Maumee OH 20:39 6:39
11 6502 Kurt Landis 24 Northwood OH 20:46 6:41
12 4553 David Johnson 24 Maumee OH 20:52 6:43
13 7299 Matthew Knestrick 20 Toledo OH 20:56 6:45
14 6213 Carl Buchwald 21 Cleveland OH 21:11 6:49
15 6787 Casey Brodbeck 21 Maumee OH 21:19 6:52
16 6982 Aureliano Adame Jr. 21 Gibsonburg OH 21:35 6:57
17 6055 Dustin Longnecker 22 Petersburg MI 21:37 6:58
18 4662 Chris Noe 21 Woodville OH 21:39 6:58
19 7296 Drew Brown 20 Perrysburg OH 22:01 7:06
20 6175 Nathan Hoffman 22 Toledo OH 22:03 7:06
21 6774 Dave Herrett 22 Perrysburg OH 22:05 7:07
22 6785 Kerry Schwable 20 Toledo OH 22:11 7:09
23 7003 Michael Dowling 23 Toledo OH 22:21 7:12
24 5490 Kevin Berlincourt 21 Petersburg MI 22:33 7:16
25 5751 Derek Lyn 21 Maumee OH 22:54 7:23
26 6237 Tim Reimund 22 Delphos OH 22:57 7:23
27 4770 Nicholas Hurd 23 Toledo OH 22:59 7:24
28 7106 Tyler Johnson 20 Whitehouse OH 23:17 7:30
29 5745 Samuel Jaffee 23 Bowling Green OH 23:26 7:33
30 4166 Alexander Mericle 22 Toledo OH 23:35 7:36
31 4849 Adam Moore 20 Perrysburg OH 23:35 7:36
32 7142 Williams Jeffrey 22 Bowling Green OH 23:45 7:39
33 6216 Michael Creech 23 Perrysburg OH 23:48 7:40
34 6391 Matt Kuna 22 Toledo OH 23:53 7:41
35 7054 Daniel Clough 21 Curtice OH 23:55 7:42
36 5888 Matthew Moses 24 Holland OH 24:40 7:57
37 4869 Scotty Phelps 24 Northwood OH 24:45 7:58
38 4679 Mark Dennison 22 Toledo OH 24:49 8:00
39 7001 Joseph Katich 20 Toledo OH 25:00 8:03
40 4593 John Shoffer 21 Toledo OH 25:09 8:06
41 7155 Ryan Gutierrez 22 Toledo OH 25:24 8:11
42 5598 Alex Spieker 22 Sylvania OH 25:35 8:14
43 6890 Valentin Ballesteros 21 Toledo OH 25:39 8:16
44 5719 Zachary Rost 23 Toledo OH 25:47 8:18
45 5565 Kyle Hymore 20 Sylvania OH 25:48 8:19
46 5970 Kallin St. John 23 Northwood OH 25:50 8:19
47 5001 Ron Diaz 24 Fostoria OH 26:11 8:26
48 6176 Brian Johnson 22 Helena OH 26:12 8:26
49 4019 Daniel Ferguson 23 Oregon OH 26:15 8:27
50 6183 Nathan Latta 20 Bowling Green OH 26:21 8:29
51 4001 Nick Batanian 24 Sylvania OH 26:31 8:32
52 6508 Michael Martinez 24 Holland OH 26:35 8:34
53 7110 Nico Deluca 21 Toledo OH 26:44 8:37
54 5996 Christopher Dillion 24 Toledo OH 26:50 8:39
55 5889 Alex Newkirk 23 Toledo OH 26:56 8:40
56 6631 Sean Rodriguez 23 Toledo OH 27:17 8:47
57 6986 Joseph Sobecki 22 Toledo OH 27:23 8:49
58 6876 Matthew Wellman 21 Perrysburg OH 27:47 8:57
59 6712 Ryan Wichman 24 Perrysburg OH 27:52 8:58
60 5852 Nathan Smith 21 Tiffin OH 28:17 9:07
61 4804 Andy Wise 24 Tiffin OH 28:31 9:11
62 6007 Mike Kolena 24 Toledo OH 28:42 9:15
63 6168 Mitchell Donaldson 22 Delphos OH 28:43 9:15
64 6374 Michael Haar 22 Whitehouse OH 29:03 9:21
65 5899 Alexander Voss 23 Sylvania OH 29:20 9:27
66 5349 L.J. Wasserman 24 Martin OH 29:26 9:29
67 4590 Heath Ridenbaugh 23 Toledo OH 29:31 9:30
68 6126 Andrew MacRitchie 24 Oak Harbor OH 29:46 9:35
69 5272 Malachi Paetow 21 Toledo OH 29:55 9:38
70 5816 Matthew Murnen 23 Toledo OH 29:56 9:38
71 7010 Michael Manion 24 Perrysburg OH 29:57 9:39
72 6868 Josh Zielinski 20 Perrysburg OH 30:30 9:49
73 4592 Joseph Seeman 23 Cincinnati OH 30:34 9:51
74 4386 Matthew Harkey 24 Toledo OH 30:58 9:58
75 5240 Torrey Simon 23 Toledo OH 31:10 10:02
76 7139 Malcolm Paetow 20 Toledo OH 31:37 10:11
77 4941 Steve Urbanski 22 Toledo OH 31:59 10:18
78 4542 Eric Bockrath 24 Ottawa OH 32:01 10:19
79 7300 Jonathan Knestrick 22 Toledo OH 32:27 10:27
80 4316 Mike Foore 24 Swanton OH 32:29 10:28
81 4628 Corey Farver 24 Toledo OH 32:44 10:33
82 6825 Matthew Wilhelm 21 Toledo OH 32:47 10:33
83 4113 Kaine Diver 20 Deerfield MI 33:02 10:38
84 6911 Padraic McClure 21 Toledo OH 33:06 10:39
85 4006 Tyler Chochard 20 Toledo OH 34:40 11:10
86 4988 Jeremy Wright 23 Toledo OH 35:17 11:22
87 5212 Geoffrey Meyers 23 Toledo OH 35:46 11:31
88 6834 Timothy Vargo 24 Perrysburg OH 37:17 12:01
89 5677 Mark Rismiller 24 Rossburg OH 38:22 12:21
90 7185 Jordan Dominique 21 Wauseon OH 38:52 12:31
91 7055 An Huynh 22 Toledo OH 40:29 13:02
92 7242 Michael Liszak 24 Toledo OH 40:31 13:03
93 4337 Charles Schwarz 22 Findlay OH 40:43 13:07
94 4989 Garrison Wright 20 Toledo OH 43:21 13:58
95 6891 Zack Rekowski 20 Ypsilanti MI 1:02:00 19:58
96 6550 Will Watkins 23 Toledo OH 1:10:37 22:44
97 5152 Michael Gorman 24 Toledo OH 1:10:39 22:45
98 5074 James Nye 23 Toledo OH 1:17:20 24:54



FEMALE AGE GROUP: 20-24
Place No. Name Age City St Time Pace
===== ===== ====================== === =============== == ======= =====
1 6889 MacKenzie Phelps 20 Toledo OH 20:36 6:38
2 6266 Sarah Dickey 20 Toledo OH 21:46 7:01
3 5812 Danielle Thomas 23 Toledo OH 22:04 7:06
4 6975 Hannah Oconnor 23 Temperance MI 24:00 7:44
5 4249 Megan Graver 21 Perrysburg OH 24:34 7:55
6 6610 Brooke Miller 22 Liberty Center OH 24:48 7:59
7 6562 Kelsey Bare 21 Napoleon OH 24:49 7:59
8 6627 Kelsey Reuther 22 Petersburg MI 24:51 8:00
9 5125 Michelle Morrow 24 Maumee OH 24:54 8:01
10 6276 Baldridge Jackie 24 Perrysburg OH 24:56 8:02
11 4230 Briana Burke 24 Genoa OH 25:07 8:05
12 4942 Mary Wilson 24 Toledo OH 25:15 8:08
13 4493 Natalie Domitio 23 Toledo OH 25:18 8:09
14 6049 Jessica Hildebrand 21 Ada OH 25:21 8:10
15 6105 Katie Simmons 20 Strongsville OH 25:33 8:14
16 7265 Alexandra McMaster 24 Sylvania OH 25:37 8:15
17 5793 Betsy Lathrop 20 Perrysburg OH 25:39 8:16
18 7192 Rachel Momenee 22 Toledo OH 26:00 8:22
19 7074 Emily West 22 Toledo OH 26:01 8:23
20 4953 Grace Maltbie 20 Toledo OH 26:08 8:25
21 5810 Katie Streb 21 Swanton OH 26:12 8:26
22 6262 Elizabeth Bradford 20 Bowling Green OH 26:21 8:29
23 4119 Kayeann Feldkamp 23 Ann Arbor MI 26:26 8:31
24 4172 Mandi Miller 24 Bellevue OH 26:29 8:32
25 5252 Megan Cordes 24 Toledo OH 26:38 8:35
26 6299 Elicia Stainbrook 22 Maumee OH 26:44 8:37
27 7252 Jason Edwards 22 Toledo OH 26:48 8:38
28 6098 Emily Plaine 21 Maumee OH 26:52 8:39
29 6922 Gabrielle Roberts 21 Toledo OH 26:55 8:40
30 5941 Alyssa Smith 20 Tiffin OH 27:13 8:46
31 5136 Courtney Seel 21 Bowling Green OH 27:14 8:46
32 6534 Cristina Sanchez 23 Bowling Green OH 27:26 8:50
33 6936 Chelsea Britton 22 Toledo OH 27:30 8:51
34 5654 Shannon Tolles 21 Maumee OH 27:35 8:53
35 4287 Amanda Steinbrunner 23 Perrysburg OH 27:41 8:55
36 5764 Melissa Seedorf 21 Toledo OH 27:43 8:56
37 4581 Tracy Farver 24 Toledo OH 27:44 8:56
38 6880 Meghan Savage 22 Bowling Green OH 28:00 9:01
39 6872 Robin Griffith 22 Irondale OH 28:05 9:03
40 4621 Emily Thetford 21 Maumee OH 28:12 9:05
41 5645 Kelsey Ranly 21 Toledo OH 28:14 9:06
42 5938 Kelli Roundtree 21 Ada OH 28:26 9:09
43 4419 Rachel Lorenzo 24 Ida MI 28:28 9:10
44 4176 Kelly Oconnell 23 Toledo OH 28:28 9:10
45 6649 Katie Vanderhoff 20 Findlay OH 28:32 9:11
46 6658 Kelsey Wollenweber 24 Toledo OH 28:38 9:13
47 6886 Ashley Sepanski 22 Sylvania OH 28:47 9:16
48 4964 Stephanie Seibert 23 Tiffin OH 28:47 9:16
49 7104 Lauren Patterson 21 Sylvania OH 28:48 9:16
50 5730 Morgan Bowling 20 Toledo OH 28:51 9:17
51 4734 Sakina Junaghadwala 24 Toledo OH 28:54 9:19
52 6827 Lauren Hase 24 Toledo OH 29:02 9:21
53 4401 Nicole Reincke 23 Canton MI 29:08 9:23
54 5623 Kara Heitmann 21 Maumee OH 29:09 9:23
55 4265 Christy MacK 24 Delta OH 29:12 9:24
56 6591 Carly Harter 20 Toledo OH 29:15 9:25
57 4888 Abigail Utendorf 21 Elmore OH 29:16 9:25
58 4735 Tonia Kline 23 Elmore OH 29:21 9:27
59 7234 Alexandria Serafino 22 Toledo OH 29:26 9:29
60 4618 Tiffany Ridenbaugh 22 Toledo OH 29:30 9:30
61 6095 Andrea Mitchell 20 Toledo OH 29:50 9:36
62 4962 Ann Riepenhoff 23 Toledo OH 29:55 9:38
63 4738 Lindsey Lewis 23 Walbridge OH 29:57 9:39
64 4570 Darcy Brickner 22 Ottawa OH 29:58 9:39
65 5107 Kendra Carnicom 20 Temperance MI 30:01 9:40
66 6802 Laine Vicarel 21 Youngstown OH 30:04 9:41
67 6602 Chelsea Laney 22 Toledo OH 30:11 9:43
68 5931 Taylor Newlove 21 Bowling Green OH 30:11 9:43
69 4232 Denise Charboneau 22 Stow OH 30:12 9:43
70 5580 Emily Mullenax 21 Cincinnati OH 30:13 9:44
71 6495 Kim Kesselmayer 21 Toledo OH 30:16 9:45
72 6393 Joanna Larkin 23 Bowling Green OH 30:20 9:46
73 5259 Erica Hackworth 24 Columbus Grove OH 30:23 9:47
74 5786 Amber Holmes 22 Toledo OH 30:30 9:49
75 5741 Lauren Holub 24 Toledo OH 30:33 9:50
76 6596 Lesley Holub 24 Toledo OH 30:35 9:51
77 6178 Lauren Klee 23 Toledo OH 30:37 9:52
78 6100 Casey Rehm 23 Toledo OH 30:39 9:52
79 6974 Amy Drennan 24 Maumee OH 30:39 9:52
80 7207 Kate Collier 23 Deshler OH 30:42 9:53
81 5921 Amy Harig 21 Toledo OH 30:44 9:54
82 5460 Kim Vogtsberger 23 Maumee OH 30:46 9:55
83 5862 Cherryl Zekeng 21 Ada OH 30:54 9:57
84 7284 Caitlin Sullivan 20 Elkhart IN 30:56 9:58
85 5932 Sarah Nitkiewicz 21 Perrysburg OH 30:56 9:58
86 7067 Brynn Keane 23 Temperance MI 31:03 10:00
87 4281 Liz Rullestad 22 Toledo OH 31:06 10:01
88 4489 Samantha Boland 23 Toledo OH 31:12 10:03
89 6528 Bridget Rattay 24 Sylvania OH 31:14 10:04
90 5763 Heather Schultz 24 Erie MI 31:20 10:06
91 4619 Erica Rohr 23 Toledo OH 31:32 10:09
92 5251 Kelli Cole 23 Sylvania OH 31:33 10:10
93 5433 Kristen Cole 24 Toledo OH 31:33 10:10
94 6086 Chelsea Hudson 22 Toledo OH 31:36 10:11
95 4279 Hannah Ridgely 22 Bowling Green OH 31:36 10:11
96 4685 Keri Gallagher 22 Toledo OH 31:48 10:14
97 5254 Emily Dubuc 21 Lambertville MI 31:54 10:17
98 7254 Alissa Weaver 24 Holland OH 31:56 10:17
99 6823 Amanda Witkowski 22 Lima OH 31:56 10:17
100 4564 Christina Allyn 24 Ida MI 31:57 10:17
101 5101 Baker Amanda 22 Toledo OH 32:08 10:21
102 5253 Kyrsten Dubuc 20 Lambertville MI 32:17 10:24
103 5130 Arathi Pillay 21 Toledo OH 32:17 10:24
104 6970 Emily Schneiderbauer 20 Whitehouse OH 32:18 10:24
105 5550 Barbi Hall 24 Toledo OH 32:19 10:24
106 6518 Stephanie Morris 22 Toledo OH 32:27 10:27
107 4205 Courtney Terwilliger 20 Swanton OH 32:29 10:28
108 6838 Megan Kozelka 20 Independence OH 32:36 10:30
109 5574 Danielle Lowry 23 Gibsonburg OH 32:40 10:31
110 6826 Jacquelyne Weir 20 Toledo OH 32:47 10:34
111 6462 Kelsey Croak 21 Toledo OH 32:51 10:35
112 7202 Chelsea Rogers 24 Botkins OH 32:56 10:36
113 6815 Kristine Hady 23 Toledo OH 33:09 10:40
114 5891 Breann Pfouts 20 Walbridge OH 33:19 10:44
115 4622 Alison Thetford 24 Maumee OH 33:27 10:46
116 7229 Autumn Aouad 24 Berkey OH 33:33 10:48
117 6207 Adelle Abouarrage 22 Toledo OH 33:38 10:50
118 6464 Emily Davis 22 Bowling Green OH 33:38 10:50
119 5073 Lindsey Nofziger 23 Toledo OH 33:40 10:51
120 6749 Erin Cottle 20 Toledo OH 34:23 11:04
121 6810 Elizabeth Casper 20 Toledo OH 34:24 11:05
122 6560 Stephanie Asmus 24 Haskins OH 34:24 11:05
123 6824 Jenna Vesey 20 Toledo OH 34:44 11:11
124 5082 Stephanie Seim 22 Bowling Green OH 35:22 11:23
125 5757 Emily Navarre 22 Toledo OH 35:28 11:25
126 6532 Kaley Rowe 22 Perrysburg OH 35:29 11:26
127 5584 Heather Niedermeier 24 Willard OH 35:38 11:29
128 5795 Sydney Long 20 Toledo OH 35:47 11:31
129 4139 Amy Helm 24 Bellevue OH 36:10 11:39
130 4128 Emily Gaborcik 22 Rittman OH 36:33 11:46
131 5328 Amy Kessler 23 Fayette OH 36:36 11:47
132 6467 Maggie Ditto 23 Van Wert OH 36:38 11:48
133 5937 Emily Rees 23 Napoleon OH 36:39 11:48
134 4944 Sarah Barchick 23 Springfield OH 36:43 11:49
135 7171 Samantha Pierson 21 Sylvania OH 36:54 11:53
136 6576 Emily Curtis 23 Findlay OH 37:00 11:55
137 7170 Carolyn Hilbert 20 Sylvania OH 37:05 11:56
138 6997 Kelsi Smith 24 Wauseon OH 37:08 11:58
139 4148 Kyrsten Kachmarik 23 Perrysburg OH 37:18 12:01
140 4965 Ashley Shea 24 Toledo OH 37:36 12:06
141 7206 Audrey Backes 21 Bowling Green OH 37:57 12:13
142 7063 Miriam Saas 24 Sylvania OH 37:59 12:14
143 4387 Andrea Heban 24 Rossford OH 38:06 12:16
144 4174 Stephanie Murzin 24 Maybee MI 38:39 12:27
145 5314 Jannelle Buehrer 24 Wauseon OH 38:49 12:30
146 5628 Jessica Hillary 24 Waterville OH 38:51 12:31
147 4480 Amy Ritter 21 Maumee OH 39:14 12:38
148 5236 Kimberly Ronda 24 Toledo OH 39:16 12:39
149 6219 Katlyn Gall 22 Maumee OH 39:30 12:43
150 6727 Brittany Allison 20 Temperance MI 40:24 13:00
151 4191 Rebecca Ryan 23 Ada OH 40:29 13:02
152 7210 Brittany Liszak 24 Toledo OH 40:31 13:03
153 4068 Jayna Taylor 23 Findlay OH 40:43 13:07
154 6616 Ashley Murphy 22 Toledo OH 40:59 13:12
155 6955 Melissa Carrasco 21 Toledo OH 41:11 13:16
156 4651 Danielle Foster 24 Walbridge OH 42:04 13:33
157 4127 Alexandria Funk 20 Toledo OH 44:25 14:18
158 6328 Leslie Williamson 24 Toledo OH 44:27 14:19
159 5420 Kiley Wasserman 22 Martin OH 44:27 14:19
160 4620 Brooke Schumacher 24 Whitehouse OH 44:34 14:21
161 4578 Melissa Deacon 23 Whitehouse OH 44:35 14:21
162 6589 Amanda Haefner 24 Sylvania OH 44:50 14:26
163 5519 Janelle Rismiller 22 Rossburg OH 46:00 14:49
164 7127 Kristen Gordon 24 Oregon OH 46:18 14:54
165 4918 Rachel Crum 21 Waterville OH 46:51 15:05
166 6031 Christie Collins 23 Maumee OH 47:09 15:11
167 6860 Ashley Gase 20 Toledo OH 48:33 15:38
168 5104 Brandi Barrera 24 Toledo OH 49:04 15:48
169 4162 Danajo MacK 23 Delta OH 1:02:47 20:13
170 4557 Dawn Little 23 Monroe MI 1:03:22 20:24
171 261 Aelec Chandler 23 Toledo OH 1:06:05 21:17
172 5594 Katy Schroeder 21 Ottawa OH 1:06:35 21:26
173 6323 Nick Sochacki 21 Toledo OH 1:08:11 21:57
174 6267 Colleen Diemer 22 Toledo OH 1:08:43 22:07
175 4360 Sammie Thiemens 23 Lima OH 1:13:14 23:34
176 4610 Kendra Jones 21 Toledo OH 1:14:42 24:03
177 6778 Megan Woodruff 24 Toledo OH 1:15:23 24:16
178 5596 Courtney Snider 22 Oak Harbor OH 1:16:19 24:34
179 4145 Samantha Holzemer 23 Toledo OH 1:17:24 24:55
180 5910 Deena Cowell 20 Toledo OH 1:20:37 25:57
181 5649 Candiss Schneider 22 Sylvania OH 1:21:28 26:14
182 6444 Rachael Yake 21 Findlay OH 1:28:25 28:28
183 6585 Amanda Goss 21 Petersburg MI 1:28:46 28:35



MALE AGE GROUP: 25-29
Place No. Name Age City St Time Pace
===== ===== ====================== === =============== == ======= =====
1 7046 Andre Miller 28 Sylvania OH 19:10 6:10
2 6035 Curtis Farnsel 25 Toledo OH 19:28 6:16
3 5849 Marvin Ryals 29 Toledo OH 20:09 6:29
4 6005 Sean James 29 Maumee OH 20:12 6:30
5 6127 Jeffrey McMahon 25 Rossford OH 20:12 6:31
6 6857 Brandon Eagen 27 Cincinnati OH 21:21 6:53
7 6088 Mark Kellermeyer 27 Toledo OH 21:24 6:54
8 6042 Mike Gallagher 27 Toledo OH 21:31 6:56
9 6935 Chris McLaughlin 29 Temperance MI 21:43 7:00
10 6379 Michael House 27 Woodville OH 21:46 7:01
11 7108 Landon Herees 28 Whitehouse OH 21:46 7:01
12 4125 Michael Fosnaugh 26 Defiance OH 22:14 7:10
13 4999 Brett Bowen 29 Toledo OH 22:33 7:16
14 4548 John Findling 27 Perrysburg OH 22:37 7:17
15 4060 Travis Royer 27 Lambertville MI 22:47 7:20
16 6132 Eric Swartz 26 Toledo OH 23:18 7:30
17 4397 William Warnke 25 Oregon OH 23:23 7:32
18 6427 Todd Sterken 29 Toledo OH 23:34 7:36
19 6545 Kevan Toney 25 Toledo OH 23:37 7:37
20 5721 Nathan Schuldt 27 Toledo OH 23:50 7:41
21 5003 Jonathan Fiscus 29 Perrysburg OH 24:04 7:45
22 5527 Drew Vanness 26 Waterville OH 24:12 7:48
23 4772 Sean Matson 29 Toledo OH 24:33 7:54
24 6496 Michael Kipplen 26 Toledo OH 24:34 7:55
25 4807 Stephen Anderson 29 Ida MI 24:36 7:55
26 6020 Jason Smolenski 29 Toledo OH 24:38 7:56
27 5543 Brandon Erickson 25 Perrysburg OH 24:47 7:59
28 4417 Eddie Ericksen 26 Toledo OH 25:03 8:04
29 6320 Dougy Richardson 26 Toledo OH 25:13 8:07
30 6044 Jason Gintzel 28 Toledo OH 25:13 8:07
31 6382 Justin Hughes 27 Toledo OH 25:14 8:08
32 6925 Anthony Ferguson 27 Sylvania OH 25:22 8:10
33 7070 Martin Nowak 29 Ida MI 25:33 8:14
34 7004 Joshua Caudill 27 Holland OH 25:36 8:15
35 4063 Dustin Spar 25 Toledo OH 25:36 8:15
36 4811 Michael Stoll 27 Toledo OH 25:44 8:17
37 4576 Josh Cox 25 Marysville OH 25:45 8:18
38 7140 Joe Leblanc 26 Perrysburg OH 25:46 8:18
39 5709 Joseph Eide 28 Toledo OH 25:51 8:20
40 4416 Greg Coppus 28 Fostoria OH 25:53 8:20
41 6021 Tyler Tietje 25 Deshler OH 25:56 8:21
42 7180 Joshua Neal 29 Toledo OH 26:01 8:23
43 4418 Scott Jasinkowski 26 Martin OH 26:03 8:24
44 4277 Shantanu Rao 27 Toledo OH 26:18 8:28
45 6182 Justin Lange 27 Toledo OH 26:29 8:32
46 6903 Jonathan Collins 28 Toledo OH 26:30 8:32
47 6794 Matthew Richards 29 Rossford OH 26:39 8:35
48 4098 Scott Brooker 29 Perrysburg OH 27:15 8:46
49 5334 David Munn 26 Sylvania OH 27:22 8:49
50 6539 Matthew Simko 28 Toledo OH 27:31 8:52
51 5087 John Skeldon 29 Toledo OH 27:32 8:52
52 5986 Petar Besalev 26 Toledo OH 27:34 8:53
53 5740 Bryan Hickman 27 Toledo OH 27:44 8:56
54 6636 Shawn Ruemmele 26 Perrysburg OH 27:45 8:56
55 5354 Scott Amstutz 29 Maumee OH 27:50 8:58
56 6513 Zach McKee 29 Oregon OH 28:09 9:04
57 4050 Jon Marker 29 Toledo OH 28:27 9:10
58 6790 Erik Vandermeulen 28 Bowling Green OH 28:31 9:11
59 6672 Nicholas Cramer 29 Wayne OH 29:13 9:25
60 5100 Stephen Zano 28 Toledo OH 29:43 9:34
61 5747 Adam Justusson 26 Holland OH 30:10 9:43
62 7034 Michael Hess 25 Sylvania OH 30:41 9:53
63 6386 Zak Kanary 25 Sylvania OH 31:15 10:04
64 5345 Jason Sheidler 25 Toledo OH 31:34 10:10
65 4198 Eric Snyder 28 Sylvania OH 32:07 10:20
66 6356 Nick Cherry 29 Toledo OH 32:11 10:22
67 5489 Christopher Bauer 25 Toledo OH 32:18 10:24
68 4058 Danny Royer 29 Toledo OH 32:22 10:26
69 5502 Jeremiah Gallaher 29 Perrysburg OH 32:58 10:37
70 6696 Zachary Ottenstein 28 Toledo OH 33:24 10:45
71 6866 Braden Maktinez 26 Novi MI 33:30 10:47
72 5851 Christpher Smith 28 Toledo OH 36:25 11:43
73 6388 Phil Konczal 28 Oregon OH 36:59 11:55
74 6463 Dustin Curtis 29 Findlay OH 37:01 11:55
75 5840 Andy Gahagan 25 Bryan OH 37:12 11:59
76 5008 Paul Groth 29 Toledo OH 38:17 12:20
77 6895 Dan Cassavar 28 Toledo OH 38:47 12:29
78 4040 Ed Kuhn 29 Fostoria OH 40:26 13:01
79 4764 Patricio Covarrubias 28 Walbridge OH 42:02 13:32
80 6349 Victor Armenta 27 Toledo OH 43:05 13:52
81 6835 Aditya Bidurukontham 25 Toledo OH 47:33 15:18
82 7027 Eric Sexton 27 Perrysburg OH 54:28 17:32
83 4078 Adam Wensink 27 Liberty Center OH 1:02:20 20:04
84 5126 Liz Neuhausel 29 Toledo OH 1:08:52 22:10
85 4167 Ryan Metzker 29 Oregon OH 1:12:23 23:18
86 6352 Chris Arvay 29 Sylvania OH 1:20:17 25:51
87 4028 David Hanf 29 Toledo OH 1:21:45 26:19
88 6777 Jammal Lee 25 Toledo OH 1:22:33 26:34



FEMALE AGE GROUP: 25-29
Place No. Name Age City St Time Pace
===== ===== ====================== === =============== == ======= =====
1 6606 Emma Madison 25 Bowling Green OH 20:27 6:35
2 5440 Hillary Eagen 25 Marysville MI 21:26 6:54
3 6644 McKenzie Smith 29 Rossford OH 22:28 7:14
4 7058 Anna Malone 25 Holland OH 23:37 7:36
5 4676 Adrienne Bell 29 Perrysburg OH 24:05 7:45
6 6208 Amelia Acuna 29 Perrysburg OH 24:13 7:48
7 6287 Ashley Misejka 27 Whitehouse OH 24:28 7:53
8 5113 Katie Gerrier 26 Oregon OH 24:34 7:55
9 7298 Kristi Hammond 29 Maumee OH 24:34 7:55
10 5371 Ashley Duvall 26 Toledo OH 24:38 7:56
11 4428 Hayley Ericksen 27 Toledo OH 25:08 8:06
12 4583 Amanda Heban 28 Rossford OH 25:27 8:12
13 7022 Lindsay Preston 26 Toledo OH 25:30 8:13
14 4494 Heidi Fether 26 Delta OH 25:36 8:15
15 7200 Rachel Masters 27 Toledo OH 25:37 8:15
16 5647 Candace Rothenbuhler 29 Bloomdale OH 25:41 8:16
17 4924 Nicole Gable 28 Toledo OH 25:46 8:18
18 6215 Leslie Cook 27 Maumee OH 25:50 8:19
19 5624 Emily Henderson 29 Toledo OH 25:50 8:19
20 6746 Allison Romano 25 Perrysburg OH 26:01 8:23
21 4059 Rachel Royer 27 Lambertville MI 26:24 8:30
22 5765 Kristina Shultz 28 Bowling Green OH 26:25 8:31
23 6814 Jami Lovejoy 26 Toledo OH 26:26 8:31
24 5404 Brittany Quiroga 27 Perrysburg OH 26:28 8:32
25 5659 Jennifer Ziegler-Long 29 Tiffin OH 26:29 8:32
26 4971 Brittany Welker 28 Maumee OH 26:29 8:32
27 7181 Natalie Neal 29 Toledo OH 26:40 8:35
28 6619 Rachel Ovens 25 Sylvania OH 26:40 8:35
29 4170 Carrie Miller 27 Temperance MI 26:48 8:38
30 6290 Mary Plontz 29 Perrysburg OH 26:50 8:38
31 6736 Kristin Bell 29 New Albany OH 27:15 8:47
32 6747 Kellie Grosteffon 28 Temperance MI 27:22 8:49
33 4430 Chelsea Shelnick 26 Maumee OH 27:28 8:51
34 7193 Heather Inderrieden 28 Delta OH 27:40 8:55
35 5498 Holly Cromie 26 Maumee OH 27:44 8:56
36 5778 Amanda Craig 26 Rossford OH 27:49 8:58
37 5430 Tamara Ankney 29 Archbold OH 27:50 8:58
38 7149 Amanda Voorman 27 Toledo OH 27:51 8:58
39 5363 Emily Burcin 27 Millbury OH 27:51 8:58
40 6087 Caitlyn James 28 Maumee OH 28:02 9:02
41 5332 Andrea Ledesma 25 Toledo OH 28:04 9:02
42 5942 Rebecca Stone 28 Put In Bay OH 28:06 9:03
43 6998 Stephanie Simon 25 Metamora OH 28:31 9:11
44 5537 Jessica Berlekamp 29 Fremont OH 28:33 9:12
45 4298 Lora Wonderly 27 Buffalo NY 28:34 9:12
46 5927 Michelle Lemon 29 Oregon OH 28:48 9:16
47 4813 Aime Anderson 27 Ida MI 28:48 9:17
48 6615 Jessica Morrison 27 Toledo OH 28:59 9:20
49 5076 Kelly Parrish 26 Northwood OH 29:00 9:20
50 4814 Brandi Berends 27 Toledo OH 29:01 9:21
51 5940 Kelly Secosky 25 Maumee OH 29:07 9:22
52 5408 Courtney Smith 29 Holland OH 29:10 9:24
53 4511 Andrea Stoller 29 Perrysburg OH 29:17 9:26
54 5435 Kimberly Cook 26 Maumee OH 29:19 9:26
55 7197 Shandon Kuehn 25 Chicago IL 29:32 9:31
56 6103 Carrie Seese 26 Toledo OH 29:36 9:32
57 6784 Amy Tyson 25 Bowling Green OH 29:40 9:33
58 5111 Jordan Fuller 28 Northwood OH 29:42 9:34
59 5947 Kristina Tracey 29 Toledo OH 29:44 9:34
60 6056 Kaitlin MacRitchie 27 Oak Harbor OH 29:45 9:35
61 5092 Amanda Vanness 26 Waterville OH 29:49 9:36
62 5892 Stephanie Pirrone 27 Temperance MI 29:57 9:39
63 4382 Danielle Desmond 25 Toledo OH 30:02 9:40
64 4886 Sarah Miller 27 Van Buren OH 30:24 9:47
65 4505 Kelly Plath 28 Toledo OH 30:25 9:48
66 5934 Lauren O'Neill 25 Sylvania OH 30:30 9:49
67 6937 Allison Portala 27 Toledo OH 30:37 9:52
68 5562 Katherine Hunt 28 Toledo OH 30:38 9:52
69 4165 Melissa Mead 25 Blissfield MI 30:47 9:55
70 6028 Kimberly Buckley 27 Toledo OH 30:48 9:55
71 6918 Ashley Biy 26 Toledo OH 30:53 9:57
72 6881 Sarah Schutte 28 Whitehouse OH 31:03 10:00
73 7109 Elizabeth Johnson 26 Whitehouse OH 31:10 10:02
74 4750 Kylee Seibert 25 Pemberville OH 31:29 10:08
75 7040 Ladonna Moore 26 Toledo OH 31:31 10:09
76 6493 Sara Jensen 25 Perrysburg OH 31:32 10:09
77 5243 Gillian Wilke 29 Maumee OH 31:35 10:10
78 6184 Kaitlyn Leask 26 Monroe MI 31:35 10:10
79 7068 Amanda Gobbell 25 Toledo OH 31:39 10:11
80 4582 Lori Gadberry 29 Perrysburg OH 31:45 10:13
81 5756 Theresa Mrkva 27 Toledo OH 31:46 10:14
82 4200 Kelly Snyder 27 Sylvania OH 31:54 10:16
83 5616 Ilka Decker 26 Toledo OH 32:02 10:19
84 6091 Julie Lorkowski 26 Toledo OH 32:05 10:20
85 4828 Mary Youngs 28 Sylvania OH 32:20 10:25
86 4266 Lindsey Marok 26 Lambertville MI 32:23 10:26
87 5770 Becky Tobias 29 Toledo OH 32:24 10:26
88 6052 Julie Kirby 27 Gibsonburg OH 32:34 10:29
89 4096 Nichole Borck 27 Temperance MI 32:37 10:30
90 6359 Chelsea Daniels 28 Pemberville OH 33:00 10:38
91 6643 Kayla Simon 28 Wauseon OH 33:01 10:38
92 5551 Jeanne Hargreaves 28 Toledo OH 33:06 10:40
93 4703 Noelle Owen 26 Toledo OH 33:27 10:46
94 4963 Shanna Roth 25 Fayette OH 33:31 10:48
95 5538 Kari Brackett 26 Rossford OH 33:33 10:48
96 5735 Liz Feltman 26 Adrian MI 33:45 10:52
97 5619 Casey Gallaher 29 Perrysburg OH 33:50 10:54
98 7073 Lisa Sadowski 29 Perrysburg OH 33:50 10:54
99 4605 Amanda Brehm 29 Fayette OH 33:53 10:55
100 4421 Michelle O'Dell 29 Bryan OH 33:53 10:55
101 5233 Jessica Menna 28 Toledo OH 33:58 10:56
102 5361 Katie Buckholtz 28 Toledo OH 33:58 10:56
103 6641 Gina Scherzer 27 Toledo OH 34:18 11:03
104 4185 Jennifer Pyka 26 Lima OH 34:42 11:10
105 4111 Brandy Detrick 29 Toledo OH 34:44 11:11
106 6967 Lacey Massari 28 Toledo OH 34:56 11:15
107 4698 Emily Morris 27 Carleton MI 35:27 11:25
108 4737 Rebecca Lee 28 Toledo OH 35:34 11:27
109 6452 Justine Benton 25 Swanton OH 35:35 11:27
110 6063 Michelle Raab 27 Bowling Green OH 35:51 11:33
111 5131 Kathryn Plath 29 Bowling Green OH 36:00 11:35
112 6110 Julie Studer 26 Maumee OH 36:01 11:36
113 6481 Misty Goodrick 28 Toledo OH 36:02 11:36
114 4499 Kristin Kincade 27 Toledo OH 36:08 11:38
115 5915 Kerry Fatzinger 29 Bowling Green OH 36:11 11:39
116 5853 Stacey Smith 27 Toledo OH 36:31 11:45
117 4420 Neha Malik 25 Toledo OH 36:37 11:47
118 4596 Amanda Stein 26 Maybee MI 36:46 11:50
119 4199 Breanna Snyder 29 Holgate OH 36:46 11:50
120 5609 Melissa Bowie 26 Perrysburg OH 36:50 11:52
121 4415 Bethany Bondy 26 Toledo OH 36:58 11:54
122 6472 Amanda Feher-Konczal 27 Oregon OH 37:00 11:55
123 6958 Monique Carrasco 25 Toledo OH 37:02 11:56
124 4862 Robyn Hafner 25 Toledo OH 37:03 11:56
125 4884 Jodi MacZuga 29 Toledo OH 37:24 12:03
126 6601 Brittany Kipplen 25 Toledo OH 37:42 12:08
127 6599 Carla Kaiser 27 Perrysburg OH 37:46 12:10
128 4209 Brittany Wagner 26 Toledo OH 37:46 12:10
129 6748 Melanie Campbell 28 Toledo OH 38:32 12:25
130 6894 Andrea Cassavar 27 Toledo OH 38:47 12:29
131 5558 Heather Hillary 26 Waterville OH 38:51 12:30
132 6491 Catherine Homick 25 Toledo OH 38:59 12:33
133 5820 Sarah Widman 27 Angola IN 39:11 12:37
134 5845 Jessica Molnar 25 Oregon OH 39:43 12:47
135 4901 Melissa Greene 28 Toledo OH 42:59 13:50
136 4540 Amanda Berlin 27 Port Clinton OH 43:03 13:52
137 4567 Catherine Bingle 26 Toledo OH 43:04 13:52
138 4663 Brooke Noonan 26 Hamilton OH 43:05 13:52
139 4705 Stephanie Peer 27 Perrysburg OH 43:06 13:53
140 6112 Kayla Tussing 29 Toledo OH 43:43 14:05
141 4661 Maggie Murzin 27 Maybee MI 43:57 14:09
142 5811 Michelle Talmage 26 Toledo OH 44:25 14:18
143 4615 Kendra Kline 28 Whitehouse OH 44:36 14:22
144 5407 Aliesha Shirey 29 Toledo OH 44:38 14:22
145 7126 Ashley Belanger 25 Walbridge OH 46:17 14:54
146 5517 Christina Nardini 27 Rossford OH 46:57 15:07
147 6348 Mystel Aldrich 26 Toledo OH 48:05 15:29
148 271 Jvann Winfield 29 Holland OH 48:39 15:40
149 4664 Heather Poddany 28 Oregon OH 50:29 16:15
150 5918 Michelle Gladle 28 Sylvania OH 55:31 17:52
151 5833 Victoria Brown 29 Perrysburg OH 56:54 18:19
152 4981 Monica Muncey 25 Toledo OH 1:00:46 19:34
153 4960 Sarah Posadny 29 Toledo OH 1:01:23 19:46
154 5093 Kathryn Wambo 27 Holland OH 1:05:28 21:05
155 5186 Bethany Sharrock 25 Perrysburg OH 1:05:36 21:07
156 5788 Jayne Johnoff 25 Toledo OH 1:05:39 21:08
157 6169 Sarah Dumas 25 Rossford OH 1:08:12 21:57
158 4242 Christie Danicke 27 Toledo OH 1:10:31 22:42
159 5925 Rachel Keller 28 Toledo OH 1:10:32 22:42
160 5650 Brittley Stansbury 25 Sylvania OH 1:12:11 23:15
161 4256 Jennifer Hurst 27 Toledo OH 1:12:32 23:21
162 4168 Jennifer Metzker 25 Oregon OH 1:12:36 23:23
163 4758 Cortney Weible 25 Toledo OH 1:13:55 23:48
164 6915 Anna Yakumithis 28 Monclova OH 1:15:24 24:16
165 5615 Sally Dandar 29 Toledo OH 1:16:19 24:34
166 7233 Susan Sargent 29 Rossford OH 1:17:25 24:56
167 6448 Megan Arvay 29 Sylvania OH 1:20:17 25:51
168 5389 Danielle Kuehnlein 25 Monroe MI 1:30:05 29:00



MALE AGE GROUP: 30-34
Place No. Name Age City St Time Pace
===== ===== ====================== === =============== == ======= =====
1 4152 Jason Kessler 31 Perrysburg OH 16:43 5:23
2 4707 Mark Robson 30 Toledo OH 19:33 6:18
3 6198 Jamin Torres 32 Wauseon OH 19:57 6:25
4 4171 Jp Miller 34 Waterville OH 20:11 6:30
5 6045 Matt Harrison 33 Toledo OH 20:17 6:32
6 4561 George Rosche 32 Sylvania OH 20:31 6:37
7 6506 Ivan Lopes 31 Sylvania OH 20:42 6:40
8 5056 Gary Gibson 31 Northwood OH 20:42 6:40
9 4537 Marc Vandenberghe 31 Napoleon OH 21:00 6:46
10 4556 Scott Link 34 Toledo OH 21:05 6:47
11 5528 Christopher Wagner 30 Bowling Green OH 21:08 6:49
12 5336 Tim Odenweller 34 Toledo OH 21:16 6:51
13 5061 David Hiltner 30 Willoughby OH 21:17 6:51
14 5296 Jason Raike 31 Toledo OH 21:22 6:53
15 4844 Nathan Gaubert 30 Holland OH 21:27 6:55
16 6439 Chad Weiland 31 Toledo OH 22:09 7:08
17 4057 Bryan Rauch 32 Oak Harbor OH 22:10 7:08
18 4891 Sam Marlow 32 Toledo OH 22:26 7:13
19 4317 Josh Hagemyer 30 North Baltimore OH 22:46 7:20
20 5220 Brad Baker 30 Holland OH 23:04 7:26
21 7146 Spencer Crissman 32 Toledo OH 23:13 7:29
22 6845 Isaac Losh 30 Toledo OH 23:18 7:30
23 5023 Matt Maxwell 30 Holland OH 23:32 7:35
24 6459 Kurt Chairelott 30 Perrysburg OH 23:33 7:35
25 5017 Scott Kessler 34 Toledo OH 23:38 7:37
26 6819 Orlando Garza 31 Stryker OH 23:39 7:37
27 4011 Matthew Detrick 32 Toledo OH 23:46 7:39
28 6185 Douglas Mallette 33 Toledo OH 23:50 7:41
29 5031 Anthony Stewart 33 Oak Harbor OH 24:02 7:45
30 5998 Chris Faber 30 Toledo OH 24:25 7:52
31 6380 Bryan Hower 33 Toledo OH 24:46 7:59
32 6136 Mark Youngman 34 Perrysburg OH 24:46 7:59
33 4046 Peter Ligman 33 Toledo OH 24:52 8:01
34 6670 James Carr 32 Toledo OH 24:59 8:03
35 6442 Jake Wilkinson 30 Toledo OH 25:06 8:05
36 5506 Stephen Hanley 32 Perrysburg OH 25:22 8:10
37 6129 David Moseley 31 Maumee OH 25:25 8:11
38 4571 Philip Caruso 31 Toledo OH 25:29 8:13
39 6165 Joe Cook 30 Maumee OH 25:30 8:13
40 5505 Paul Halbeisen 31 Fremont OH 25:35 8:15
41 6745 Keith Richard 33 Perrysburg OH 26:00 8:22
42 4290 Daniel Taylor 30 Toledo OH 26:11 8:26
43 4048 Theodore Loch 34 Toledo OH 26:17 8:28
44 6122 Dan Keller 33 Maumee OH 26:22 8:30
45 5813 Matt Beil 32 Whitehouse OH 26:28 8:31
46 5497 Greg Cordes 33 Toledo OH 27:01 8:42
47 5160 Peter Maxwell 33 Sylvania OH 27:02 8:42
48 7189 Darin Avery 30 Pittsburgh PA 27:04 8:43
49 6324 Matthew Tyner 33 Monroe MI 27:12 8:46
50 4801 Travis Thatcher 34 Maumee OH 27:14 8:46
51 4459 Christopher Arps 30 Petersburg MI 27:16 8:47
52 6378 Robert Hiss 31 Findlay OH 27:33 8:52
53 6999 Sean Wisniewski 33 Sylvania OH 27:47 8:57
54 5462 Lucas Ankney 32 Archbold OH 27:49 8:58
55 6966 Scott Massari 31 Toledo OH 27:52 8:59
56 5991 Rick Clark 32 Toledo OH 27:56 9:00
57 6121 Joel Jerger 33 Whitehouse OH 27:59 9:01
58 5323 Jeff Gerweck 32 Maybee MI 28:11 9:05
59 6708 Rick Snyder 33 Oregon OH 28:14 9:06
60 6721 Jeremy Miller 32 Sylvania OH 28:25 9:09
61 4349 Corey Zachel 33 Perrysburg OH 28:25 9:09
62 5693 Shauliel Storey 30 Toledo OH 28:38 9:13
63 6468 Aaron Dobrak 30 Toledo OH 29:12 9:24
64 5145 Brandon Bollin 34 Maumee OH 29:16 9:25
65 4455 Chad Scheid 30 Holland OH 29:16 9:26
66 6676 Ryan Dobrak 32 Toledo OH 29:20 9:27
67 7105 David Novak 31 Toledo OH 29:22 9:27
68 4747 Dan Rittner 32 Perrysburg OH 29:25 9:28
69 6682 Ryan Goodrick 33 Toledo OH 29:29 9:30
70 6805 Benjamin Olin 31 Toledo OH 29:39 9:33
71 7152 Craig Pacer 34 Oregon OH 29:43 9:34
72 6408 Jeff Nowak 34 Toledo OH 29:44 9:35
73 4067 Timothy Szparka 32 Sylvania OH 30:04 9:41
74 6668 Curtis Buchwald 31 Perrysburg OH 30:11 9:43
75 6702 Michael Rowe 32 Oregon OH 30:40 9:53
76 4639 Kristopher Stubleski 33 Erie MI 30:52 9:56
77 5857 Paul Tallent 30 Toledo OH 30:57 9:58
78 4554 Richard Kramp 30 Toledo OH 31:23 10:06
79 4007 Jason Clark 31 Bowling Green OH 31:34 10:10
80 6139 Nate Nowels 30 Toledo OH 31:46 10:14
81 4343 Brian Supplee 30 Perrysburg OH 32:12 10:22
82 5818 Adam Schoesler 33 Toledo OH 32:20 10:25
83 6505 Tyler Lipinski 33 Toledo OH 32:48 10:34
84 7016 Chris Laffartha 31 Toledo OH 33:03 10:39
85 5313 Chris Buckholtz 31 Toledo OH 33:08 10:40
86 5302 Anthony Menna 30 Toledo OH 33:56 10:56
87 4781 Matt Williams 30 Maumee OH 34:01 10:57
88 5692 Todd Miller 32 Toledo OH 34:20 11:03
89 6023 Eric Wachowiak 31 Sylvania OH 34:57 11:15
90 6181 Eric Kost 33 Maumee OH 35:27 11:25
91 4722 Pete Traver 34 Toledo OH 35:55 11:34
92 6025 Matthew Zeigler 32 Maumee OH 36:01 11:36
93 4314 Gregg Farley 33 Berkey OH 36:05 11:37
94 4385 Brian Begg 30 Maumee OH 36:08 11:38
95 6969 Samuel Burton 31 Toledo OH 37:00 11:55
96 5823 Duane Isabell 33 Toledo OH 37:01 11:55
97 5507 Paul Hemmert 31 Millbury OH 37:43 12:09
98 4793 Kevin Horvath 31 Toledo OH 40:53 13:10
99 4755 Wade Wagner 34 Rossford OH 41:57 13:30
100 5170 Matthew Zaborski 30 Bowling Green OH 49:04 15:48
101 5762 Joe Schlageter 30 Toledo OH 53:13 17:08
102 5463 Matt Curtis 34 Perrysburg OH 1:00:38 19:31
103 4834 Jake Crossgrove 33 Wauseon OH 1:09:35 22:24
104 7293 Bj Lyons 30 Clarklake MI 1:16:17 24:34
105 6677 Kyle Downour 30 Toledo OH 1:25:17 27:27
106 4782 Marcus Dawson 33 Toledo OH 1:27:13 28:05
107 5330 Nate Kuehnlein 32 Monroe MI 1:30:04 29:00
108 5736 Michael Ford 32 Holland OH 1:33:54 30:14



FEMALE AGE GROUP: 30-34
Place No. Name Age City St Time Pace
===== ===== ====================== === =============== == ======= =====
1 6822 Stephanie Egan 33 Toledo OH 19:32 6:18
2 4970 Kristin Tillison 31 Rudolph OH 20:18 6:32
3 6603 Trisha Langenderfer 33 Sylvania OH 21:54 7:03
4 6980 Julie Snider 30 Toledo OH 22:33 7:16
5 4589 Kathryn Nichols 30 Toledo OH 22:33 7:16
6 4612 Meghan Keim 30 Indianapolis IN 23:29 7:34
7 4485 Alison Thomas 32 Toledo OH 23:41 7:38
8 5946 Jackie Tipton 30 Delta OH 24:28 7:53
9 4259 Chantilly Kessler 31 Perrysburg OH 24:30 7:53
10 6501 Kristi Krupp 32 Bowling Green OH 24:34 7:55
11 6878 Juli Seinert 31 Toledo OH 24:52 8:00
12 4188 Jena Riseborough 34 Napoleon OH 25:01 8:04
13 6756 Kelly Neundorfer 32 Monclova OH 25:16 8:08
14 4865 Tamara Kranz 30 Westerville OH 25:23 8:10
15 6512 Tara McGrath 34 North Lima OH 25:28 8:12
16 4951 Marcia Honisko 30 Sylvania OH 25:31 8:13
17 4003 Jennifer Bell 31 Perrysburg OH 25:42 8:17
18 4614 Mindy Klawonn 32 Temperance MI 25:44 8:17
19 5541 Meredith Diehl 34 Toledo OH 25:49 8:19
20 5924 Dana Kelble 34 Metamora OH 25:57 8:21
21 6303 Molly Tyner 31 Monroe MI 26:03 8:23
22 6297 Tanya Smith 33 Adrian MI 26:34 8:34
23 6504 Melissa Lazenby 33 Maumee OH 26:35 8:34
24 4187 Brooke Renfro 30 Fremont OH 26:51 8:39
25 5385 Amy Jackson 31 Holland OH 26:58 8:41
26 6304 MacKenzie Wenig 31 Bowling Green OH 27:07 8:44
27 6884 Alexandria Wenig 31 Bowling Green OH 27:08 8:44
28 6583 Tara Fusco Gunderma 31 Delta OH 27:09 8:45
29 5419 Sherry Walker 33 Walbridge OH 27:12 8:46
30 5108 Meredith Carver 34 Monclova OH 27:16 8:47
31 4562 Heather Steer 32 Rossford OH 27:17 8:47
32 6048 Kristal Helfman 33 Sylvania OH 27:20 8:48
33 4613 Kelly Klawonn 31 Temperance MI 27:21 8:48
34 5952 Kori Zake 34 Toledo OH 27:30 8:51
35 4876 Liz Terwilliger 32 Toledo OH 27:32 8:52
36 6793 Stesha Slates 31 Toledo OH 27:32 8:52
37 6454 Emily Boyle 32 Perrysburg OH 27:36 8:53
38 6617 Missy Namay 33 Maumee OH 27:57 9:00
39 5453 Kelly Sattler 31 Waterville OH 28:08 9:04
40 5516 Nicole Miller 34 Bowling Green OH 28:14 9:06
41 4933 Katie Pollock 32 Waterville OH 28:18 9:07
42 5785 Mandy Harman 32 Toledo OH 28:18 9:07
43 4700 Christine Nackowicz 30 Perrysburg OH 28:20 9:08
44 5457 Theresa Totedo 32 Sylvania OH 28:23 9:08
45 5459 Cristina Varner 34 Temperance MI 28:31 9:11
46 5382 Jennifer Hiegert 34 Toledo OH 28:37 9:13
47 5599 Jodi Stoiber 30 Maumee OH 28:45 9:15
48 5577 Lisa Miller 32 Toledo OH 28:50 9:17
49 4733 Melissa Hilt 33 Whitehouse OH 29:08 9:23
50 5569 Nicole Knight 34 Toledo OH 29:12 9:24
51 5412 Julie Steinhardt 31 Toledo OH 29:15 9:25
52 6877 Stephanie Rubley 33 Temperance MI 29:19 9:27
53 5878 Susan Holmes 32 Sylvania OH 29:20 9:27
54 5933 Rachael Novak 31 Toledo OH 29:21 9:27
55 4393 Jessica Coleman 34 Fostoria OH 29:26 9:29
56 6861 Brianne Patek 31 Toledo OH 29:27 9:29
57 5442 Mary Frost 33 Toledo OH 29:33 9:31
58 4075 Kim Vandenbusche 33 Jasper MI 29:40 9:33
59 4616 Melissa Noe 30 Maumee OH 29:41 9:34
60 5929 Amber Leigh McCormick 31 Toledo OH 29:44 9:34
61 4269 Deanne Miller 33 Waterville OH 29:51 9:37
62 6593 Kelly Hiss 32 Findlay OH 29:52 9:37
63 4923 Dani Fuller 31 Chicago IL 29:56 9:38
64 4094 Joy Bockbrader 30 Toledo OH 29:58 9:39
65 5581 Erin Navarre 31 Delta OH 30:02 9:40
66 7059 Trisha Schneider 33 Wauseon OH 30:02 9:40
67 4204 Kelli Szparka 32 Sylvania OH 30:05 9:41
68 4689 Jaime Heldmann 34 Holland OH 30:09 9:43
69 4065 Sarah Swy-Boeding 33 Toledo OH 30:11 9:43
70 4486 Melissa Wehrman 33 Whitehouse OH 30:15 9:45
71 4903 Adrienne Grosswiler 32 Sylvania OH 30:17 9:45
72 6623 Brenda Rayn 33 Waterville OH 30:19 9:46
73 5746 Jessica Jones 31 Toledo OH 30:28 9:49
74 6634 Heather Rowe 30 Oregon OH 30:29 9:49
75 4220 Katie Zachel 34 Perrysburg OH 30:35 9:51
76 5367 Julie David 30 Toledo OH 30:39 9:52
77 5350 Jenny Wichman 31 Mc Clure OH 30:42 9:53
78 6965 Sara Smith 30 Toledo OH 30:47 9:55
79 4465 Tracy Flak 32 Howell MI 30:50 9:56
80 7188 Laura Avery 32 Pittsburgh PA 30:51 9:56
81 6282 Becki McVicker 30 Toledo OH 30:53 9:57
82 5536 Jeni Baranski 32 Toledo OH 30:59 9:59
83 6551 Therese Weisenburger 30 Toledo OH 30:59 9:59
84 5867 Amanda Bryant 30 Bowling Green OH 31:04 10:00
85 5132 Amy Rankin 31 Toledo OH 31:05 10:00
86 6489 Rachel Hepner Zawodny 32 Toledo OH 31:12 10:03
87 4396 Elisha Pelland 31 Swanton OH 31:22 10:06
88 4920 Josie Dulaney 34 Wauseon OH 31:22 10:06
89 5431 Jennifer Bruning 33 Maumee OH 31:28 10:08
90 4950 Bridget Hammer 34 Findlay OH 31:31 10:09
91 4088 Tara Armstrong 32 Lambertville MI 31:35 10:10
92 5400 Stephanie Osborn 34 Tiffin OH 31:43 10:13
93 6510 Heather Maurer 33 Delta OH 31:45 10:13
94 6037 Karen Fishman 31 Toledo OH 31:46 10:14
95 4443 Lindsay Elchert 33 Findlay OH 31:55 10:17
96 5423 Leah Wilson 32 Toledo OH 32:02 10:19
97 5656 Rachel Wright 31 Toledo OH 32:06 10:20
98 6426 Cindy Stanfield 33 Bowling Green OH 32:08 10:21
99 4937 Amy Scherf 32 Findlay OH 32:11 10:22
100 4294 Erin Webb 34 Bowling Green OH 32:26 10:27
101 5383 Jen Hildebrand 32 Waterville OH 32:36 10:30
102 5289 Amy Firsdon 32 Oregon OH 32:39 10:31
103 4674 Allison Ames 33 Sylvania OH 32:41 10:32
104 6381 Rachael Hower 30 Toledo OH 32:42 10:32
105 4097 Tammy Bronowski 32 Curtice OH 32:50 10:35
106 7072 Kelly Sadowski 30 Perrysburg OH 32:56 10:36
107 6968 Elizabeth Cisneros 30 Bryan OH 33:07 10:40
108 4579 Christine Erhardt 30 Toledo OH 33:28 10:47
109 4196 Amberlee Shaut 32 Toledo OH 33:32 10:48
110 7246 Nicki Sherburne 32 Palm Bay FL 33:43 10:51
111 6245 Josie Torres 32 Wauseon OH 33:52 10:54
112 5042 Christina Barron 31 Oak Harbor OH 33:56 10:56
113 4394 Erin Margraf 30 Tiffin OH 33:56 10:56
114 6816 Wendy Flemmings 33 Temperance MI 33:59 10:57
115 5224 Rebecca Cross 33 Port Clinton OH 34:06 10:59
116 6637 Jessica Rumpf 30 Toledo OH 34:08 10:59
117 4500 Julie Kirlin 32 Toledo OH 34:08 11:00
118 4410 Marcia Halason 31 Monroe MI 34:21 11:04
119 6640 Traci Sands 34 Sylvania OH 34:21 11:04
120 6630 Kelli Robinson 30 Findlay OH 34:36 11:09
121 4184 Judy Pusateri 32 Findlay OH 34:37 11:09
122 6902 Dana Mills 30 Toledo OH 34:37 11:09
123 6973 Liz Jacoby 30 Toledo OH 34:44 11:11
124 6214 Heather Cook 33 Morenci MI 34:55 11:15
125 5072 Anna Mossburg 33 Temperance MI 35:00 11:16
126 6222 Sarah Goodnough 34 Sylvania OH 35:07 11:18
127 5075 Tricia Palmer 34 Temperance MI 35:15 11:21
128 6406 Lindsay Navarre 30 Toledo OH 35:28 11:25
129 6964 Megan Reid 33 Perrysburg OH 35:32 11:27
130 4157 Lisa Lee 31 Toledo OH 35:34 11:27
131 4049 Elizabeth Lorenzen 30 Bowling Green OH 35:36 11:28
132 6029 Jennifer Burns 30 Toledo OH 35:37 11:28
133 6509 Stephanie Mash 33 Toledo OH 35:38 11:28
134 5593 Nicole Rybarczyk 33 Toledo OH 35:39 11:29
135 6457 Heather Carlson 31 Temperance MI 35:48 11:32
136 4721 Kacie Traver 30 Toledo OH 35:57 11:35
137 6803 La Vauna Nickerson 33 Toledo OH 36:06 11:38
138 6574 Victoria Cramer 31 Findlay OH 36:35 11:47
139 5855 Angela Supplee 30 Holland OH 36:41 11:49
140 4190 Courtney Rock 31 Toledo OH 36:49 11:51
141 5877 Ann Hertzpelo 31 Whitehouse OH 36:55 11:53
142 6497 Eliana Klein 30 Toledo OH 37:15 12:00
143 6538 Elizabeth Siegfried 30 Bowling Green OH 37:27 12:04
144 6422 Katie Smith 32 Bowling Green OH 37:27 12:04
145 7120 Julie Moor 30 Maumee OH 37:38 12:07
146 6252 Heather Zimmerman 34 Wayne OH 37:39 12:07
147 5696 Christy Hemmert 31 Millbury OH 37:48 12:10
148 4342 Trich Smith 34 Toledo OH 38:03 12:15
149 4771 Kate Koester 31 Maumee OH 38:04 12:15
150 4021 Sabrina Forbes 34 Perrysburg OH 38:11 12:18
151 5521 Megan Shuler 34 Elmore OH 38:13 12:18
152 6024 Beth Waller 34 Maumee OH 38:31 12:24
153 5716 Latrice Mickles 34 Toledo OH 38:52 12:31
154 4009 Nicole Daly 33 Holland OH 38:57 12:33
155 5539 Nora Castaneda 34 Defiance OH 39:03 12:35
156 6471 Lindsay Feasel 32 Perrysburg OH 39:05 12:35
157 6389 Brandy Koperski 31 Toledo OH 39:42 12:47
158 7264 Christa Stalter 31 Holland OH 39:43 12:47
159 6092 Shannon Lynch 30 Toledo OH 39:52 12:50
160 4169 Andie Meyer 31 Hamler OH 39:56 12:51
161 4448 Brooke Moser 34 Waterville OH 40:51 13:09
162 4820 Breanne Horvath 32 Toledo OH 41:04 13:13
163 5909 Alisha Connors 30 Toledo OH 41:56 13:30
164 5549 Sarah Halbgisen 30 Fremont OH 41:56 13:30
165 6224 Nicole Johnson 32 Fremont IN 42:30 13:41
166 4027 Kasey Hagemyer 30 North Baltimore OH 42:41 13:45
167 6818 Anne Shriner 31 Chicago IL 42:57 13:50
168 4778 Lynn Shaffer 32 Sylvania OH 43:01 13:51
169 6635 Sara Rozanski 33 Toledo OH 43:05 13:52
170 4881 Crystal Desselles 31 Ypsilanti MI 43:47 14:06
171 4546 Emily Farthing 34 Findlay OH 43:56 14:09
172 4897 Kathryn Ball 32 Toledo OH 44:24 14:18
173 5739 Miranda Heams 33 Lambertville MI 45:03 14:30
174 6125 Debbie Lynch 34 Ypsilanti MI 48:33 15:38
175 6032 Danielle Digby 34 Tiffin OH 55:09 17:45
176 6425 Patti Spence 32 Findlay OH 56:44 18:16
177 5197 Nicole Bazzoli 33 Toledo OH 58:39 18:53
178 4031 Miki Hodge 34 Waterville OH 1:01:09 19:41
179 4655 Kimberly Iler 33 Perrysburg OH 1:01:10 19:41
180 6483 Lindsay Griggs 34 Toledo OH 1:01:41 19:52
181 6659 Karen Wu 32 Perrysburg OH 1:04:00 20:36
182 6480 Allison Glinka 31 Holland OH 1:04:00 20:36
183 7168 Tina Mosqueda 31 Toledo OH 1:08:11 21:57
184 4155 Kelly Lake 33 Lambertville MI 1:10:35 22:44
185 4586 Adrienne King 34 Maumee OH 1:10:54 22:50
186 4053 Brook Nichols 33 Maumee OH 1:12:33 23:21
187 5103 Megan Ball-Mcnally 31 Temperance MI 1:15:00 24:09
188 4034 Kimberly Jennings 30 Lima OH 1:15:44 24:23
189 4986 Dara Elliott 32 Westerville OH 1:17:53 25:04
190 6704 Tamika Saunders 34 Toledo OH 1:17:53 25:04
191 4086 Heather Allred 34 Toledo OH 1:20:15 25:50
192 5267 Christi Mahler 30 Findlay OH 1:20:19 25:51
193 4484 Lisa Thomas 32 Toledo OH 1:20:49 26:01
194 6034 Sarah Drulard 34 Temperance MI 1:21:14 26:09
195 5776 Jacqueline Atherine 32 Columbus OH 1:21:46 26:19
196 4611 Samantha Kalous 33 Waterford MI 1:22:07 26:26
197 6455 Shannon Buchwald 31 Perrysburg OH 1:23:32 26:54
198 6062 Jana Pelter 31 Nevada OH 1:30:13 29:03



MALE AGE GROUP: 35-39
Place No. Name Age City St Time Pace
===== ===== ====================== === =============== == ======= =====
1 5331 Jeffrey Lammers 36 Bowling Green OH 17:17 5:34
2 6821 Kevin Egan 35 Toledo OH 17:20 5:35
3 5191 Jeff Ressler 35 Napoleon OH 18:15 5:53
4 5690 Greg Ludwig 37 Monclova OH 19:46 6:22
5 6887 Shaun Gotha 36 Toledo OH 20:48 6:42
6 6153 David Large 38 Toledo OH 21:04 6:47
7 5411 Shane Steinhardt 37 Toledo OH 21:13 6:50
8 6358 Michael Crawford 36 Dundee MI 21:22 6:53
9 4412 Gale Miller 37 Wauseon OH 21:22 6:53
10 6435 Asaron Valentine 37 Whitehouse OH 21:35 6:57
11 5556 Jason Hill 37 Sylvania OH 21:41 6:59
12 6938 Jason Portala 35 Toledo OH 21:46 7:01
13 4641 Ryan Ames 36 Sylvania OH 21:46 7:01
14 6008 Jerry Lagger 38 Waterville OH 22:05 7:07
15 4626 Mark Bratt 37 Toledo OH 22:14 7:10
16 6118 Thomas Hallett Ii 37 Oak Harbor OH 22:14 7:10
17 5218 Steve Stanton 39 Perrysburg OH 22:22 7:12
18 5356 Jason Bartschy 37 Toledo OH 23:05 7:26
19 7279 Tim Raker 37 Toledo OH 23:21 7:31
20 6010 Steve McNamee 39 Sylvania OH 23:49 7:40
21 6808 Aaron Baker 39 Toledo OH 23:56 7:42
22 6134 Matt Wolfe 39 Fremont OH 24:07 7:46
23 5369 Jon Drake 38 Toledo OH 24:10 7:47
24 5214 Ben Otley 37 Bowling Green OH 24:10 7:47
25 7278 Roger Parker 36 Oak Harbor OH 24:21 7:50
26 6812 Edgar Becerra 35 Sunnyvale ca 24:27 7:52
27 7253 David Harrison 35 Maumee OH 24:33 7:54
28 6960 David Stamm 35 Maumee OH 24:53 8:01
29 6390 Spencer Krupp 35 Bowling Green OH 25:03 8:04
30 6016 Al Sanchez 39 Perrysburg OH 25:16 8:08
31 7294 Eric Young 37 Perrysburg OH 25:17 8:09
32 5718 Ken Richendollar 36 Maumee OH 25:26 8:12
33 4555 Joshua Lanzinger 39 Toledo OH 25:31 8:13
34 4739 Weixin Li 37 Waterville OH 25:43 8:17
35 5158 Scott Langlais 36 Toledo OH 25:45 8:18
36 7231 Steve Sorge 37 Toledo OH 25:45 8:18
37 5831 Matt Bigelow 35 Waterville OH 25:54 8:21
38 6423 Aaron Snelling 36 Toledo OH 26:13 8:27
39 5027 Steve Sellers 39 Sylvania OH 26:16 8:28
40 5340 Joshua Rupli 36 Temperance MI 26:25 8:30
41 7044 Dan Mock 36 Ottawa Lake MI 26:26 8:31
42 5469 Robert Oberdorf 38 Rossford OH 26:28 8:32
43 6416 Bryan Riley 37 Sylvania OH 26:34 8:34
44 4445 Ryan Householder 36 Whitehouse OH 26:36 8:34
45 6003 Charles Hollingsworth 36 Holland OH 26:36 8:34
46 6673 Brent Dauterman 37 Toledo OH 26:51 8:39
47 4309 Philip Craig 35 Rossford OH 26:53 8:39
48 5956 Jarrod Buffy 39 Waterville OH 26:58 8:41
49 5147 Michael Cook 36 Sylvania OH 27:00 8:42
50 4449 Jerry Nesamony 38 Toledo OH 27:04 8:43
51 5689 Nick Faris 36 Toledo OH 27:10 8:45
52 7227 Rob Welch 39 Holland OH 27:12 8:46
53 5316 Joe Carver 36 Monclova OH 27:16 8:47
54 4872 Jason Smith 35 Toledo OH 27:21 8:48
55 4853 Jeremy Terwilliger 35 Toledo OH 27:30 8:51
56 4044 Bruce Liener 36 Perrysburg OH 28:04 9:02
57 5723 Scott Smallman 39 Metamora OH 28:04 9:03
58 6431 Alex Szilak 36 Oregon OH 28:09 9:04
59 5298 Tim Schunk 39 Perrysburg OH 28:11 9:05
60 5492 Scott Carman 36 Perrysburg OH 28:13 9:05
61 5159 Robert Martin III 35 Waterville OH 28:41 9:14
62 4439 Aaron Baynes 38 Archbold OH 28:43 9:15
63 7090 Jason Hawkins 35 Whitehouse OH 28:50 9:17
64 4912 Greg Onnenga 38 Toledo OH 28:55 9:19
65 4117 Patrick Farley 38 Maumee OH 28:56 9:19
66 6131 Dan Stafford 37 Lansing MI 29:01 9:21
67 6791 Andrew Webb 36 Bowling Green OH 29:02 9:21
68 5370 Brent Drouillard 36 Sylvania OH 29:02 9:21
69 4305 Brett Bledsoe 39 Napoleon OH 29:09 9:23
70 5309 Marcus Beaumont 39 Columbus OH 29:10 9:24
71 4345 Doug Teskey 36 Holland OH 29:11 9:24
72 6200 Mickey Van Etten 38 Wauseon OH 29:16 9:26
73 5975 Mark Forgach 37 Sylvania OH 29:19 9:26
74 5293 Corey Lyons 35 Toledo OH 29:25 9:28
75 4350 James Bennett 35 Maumee OH 29:37 9:32
76 4627 Thomas Curtis 36 Mc Clure OH 29:39 9:33
77 6199 Paul Toth 36 Toledo OH 30:17 9:45
78 4659 Curt Mellott 37 Tiffin OH 30:26 9:48
79 4338 Charlie Seddon 35 Sylvania OH 30:28 9:49
80 5666 Jason Hirz 38 Avon OH 31:13 10:03
81 5175 Corey Harris 38 Toledo OH 31:34 10:10
82 6946 Thomas Swigart 35 Toledo OH 31:37 10:11
83 4359 Jon Staelgraeve 39 Monroe MI 31:39 10:11
84 5969 Steve Smrcina 37 Sylvania OH 31:41 10:12
85 4552 Josh Huffman 36 Pandora OH 31:48 10:14
86 6907 Aurelio Valadez 37 Maumee OH 32:15 10:23
87 4985 Christopher Ball 37 Toledo OH 33:38 10:50
88 6979 Ian King 38 Sylvania OH 34:11 11:00
89 6961 Eric Bachar 36 Toledo OH 34:45 11:11
90 6309 Mark Berry 36 Toledo OH 35:31 11:26
91 4407 Chris Neeson 36 Bowling Green OH 35:49 11:32
92 7186 Joseph Walton 39 Perrysburg OH 36:06 11:38
93 7093 William Shaner 39 Temperance MI 36:24 11:43
94 7179 Ryan Crozier 36 Sylvania OH 36:48 11:51
95 6906 Stewart Peek 38 Southgate MI 37:23 12:02
96 6141 Chris McCarthy 37 Monroe MI 37:31 12:05
97 6346 Tim Wilcox 36 Haskins OH 38:19 12:20
98 4893 Carl Cotterman 38 North Baltimore OH 38:26 12:23
99 6667 Joe Boyle 36 Bowling Green OH 40:18 12:59
100 6719 Andrew Martin 37 Findlay OH 40:26 13:01
101 5311 Jason Brinkman 38 Weston OH 42:59 13:51
102 7123 Dan Smith 38 Perrysburg OH 43:53 14:08
103 5961 Richard Gatton 36 Sylvania OH 55:30 17:52
104 4330 Eric Nagel 36 Wauseon OH 1:13:46 23:45



FEMALE AGE GROUP: 35-39
Place No. Name Age City St Time Pace
===== ===== ====================== === =============== == ======= =====
1 4883 Lisa Hoffman 35 Helena OH 22:15 7:10
2 6084 Kim Hallett 37 Oak Harbor OH 22:15 7:10
3 4395 Lisa Neeson 36 Bowling Green OH 22:58 7:24
4 4759 Monica West 37 Toledo OH 23:42 7:38
5 5050 Meredith Cook 39 Sylvania OH 24:08 7:46
6 4271 Amy Moffitt 35 Perrysburg OH 24:36 7:55
7 4753 Jackie Vannuyen 37 Sylvania OH 24:47 7:59
8 6057 Shannon Mallendick 39 Maumee OH 25:08 8:06
9 4569 Sarah Bratt 38 Toledo OH 25:20 8:10
10 6920 Rachel Kinsman 37 Archbold OH 25:31 8:13
11 4107 Julie Crozier 37 Erie MI 25:31 8:13
12 5798 Jessica Meeker 35 Maumee OH 25:32 8:13
13 7182 Andrea Longenecker 35 Perrysburg OH 25:32 8:14
14 5546 Christy Geiser 36 Findlay OH 25:48 8:18
15 4402 Amy Snyder 37 Toledo OH 25:48 8:19
16 4288 Jenn Stillings 35 Findlay OH 25:49 8:19
17 6499 Kolleen Kopchak 39 Bradner OH 25:54 8:21
18 4478 Dawn Monnette 39 Maumee OH 25:55 8:21
19 5222 Judy Bradley 39 Toledo OH 26:03 8:23
20 4252 Michelle Hassett 37 Monroe MI 26:08 8:25
21 5438 Kelly Drake 37 Toledo OH 26:14 8:27
22 6217 Dasa Dzierwa 38 Haskins OH 26:24 8:30
23 4916 Andrea Areddy 39 Maumee OH 26:25 8:31
24 4846 Jessica Keeler 39 Sylvania OH 26:34 8:34
25 7241 K.T. Newsom 38 Sylvania OH 26:52 8:39
26 6618 Angela Nixon 38 Napoleon OH 26:55 8:40
27 6767 Rebecca Weghorst 36 Whitehouse OH 27:07 8:44
28 4687 Joyce Harnishfeger 37 Tontogany OH 27:08 8:44
29 5644 Jennifer Puls 39 Maumee OH 27:09 8:45
30 4810 Amy Kruse 36 Defiance OH 27:16 8:47
31 4248 Holly Gilsdorf 37 Bowling Green OH 27:27 8:50
32 7194 Theresa Mariea 35 Sylvania OH 27:34 8:53
33 6820 Marisol Ibarra 39 Toledo OH 27:42 8:55
34 4447 Stephanie Meinke 35 Curtice OH 27:50 8:58
35 5322 Melanie Fruchey 37 Fayette OH 27:52 8:59
36 5238 Kristen Semer 37 Maumee OH 27:57 9:00
37 5797 Joy McKarus 35 Sylvania OH 28:04 9:02
38 6991 Kerrie Denman 39 Maumee OH 28:08 9:04
39 5663 Tara Faris 36 Toledo OH 28:10 9:04
40 4948 Amy Deel 39 Green Springs OH 28:14 9:05
41 6650 Jennifer Wagoner 36 Toledo OH 28:17 9:06
42 5651 Carey Stout 38 Toledo OH 28:17 9:07
43 4510 Kristina Soliday 38 Sidney OH 28:18 9:07
44 4444 Amy Galvan 38 Holland OH 28:20 9:07
45 4136 Christine Heban 35 Whitehouse OH 28:25 9:09
46 4424 Nicole Spiros Tuori 37 Sylvania OH 28:26 9:09
47 7062 James Waats 36 Toledo OH 28:30 9:11
48 7199 Jennifer Webb 38 Rossford OH 28:32 9:11
49 6096 Jill Otermat 39 Fremont OH 28:38 9:13
50 4251 Sunday Griffith 35 Napoleon OH 28:42 9:14
51 216 Julie Westenfelder 37 Whitehouse OH 28:50 9:17
52 4102 Lisa Caswell 37 Whitehouse OH 28:53 9:18
53 5079 Cara Ressler 36 Napoleon OH 28:59 9:20
54 6524 Holly Potter 36 Millbury OH 29:00 9:21
55 5544 Jennifer Franks 39 Gibsonburg OH 29:01 9:21
56 5575 Leslie McArthur 36 Sylvania OH 29:04 9:22
57 5081 Kimberly Savich 38 Toledo OH 29:04 9:22
58 6243 Tamara Smith 37 Toledo OH 29:13 9:25
59 5732 Michelle Colella 38 Sylvania OH 29:16 9:26
60 6629 Leisa Ritchey 39 Toledo OH 29:29 9:30
61 5390 Amy Lammers 36 Bowling Green OH 29:33 9:31
62 4140 Jen Henderson 38 Gibsonburg OH 29:36 9:32
63 4577 Kristina Curtis 38 Mc Clure OH 29:41 9:33
64 4860 Tara Duris 36 Toledo OH 29:49 9:36
65 4512 Sherri Whitcomb 35 Sylvania OH 29:51 9:37
66 5943 Ali Strahan 37 Blissfield MI 29:56 9:39
67 7131 Kelly Sullivan 39 Maumee OH 30:04 9:41
68 5935 Kristen O'Neill 35 Sylvania OH 30:10 9:43
69 4233 Kori Christle 38 Morenci MI 30:10 9:43
70 7297 Christie Swiczkoski 37 Toledo OH 30:13 9:44
71 7015 Leslie Erwin 36 Elmore OH 30:15 9:44
72 5922 Jennifer Howe 36 Toledo OH 30:16 9:45
73 7215 Robin Scheff 35 Perrysburg OH 30:33 9:50
74 4134 Kelli Harshman 36 Sylvania OH 30:42 9:53
75 5905 Jennifer Carpenter 38 Whitehouse OH 30:48 9:55
76 7118 Lisa Ciborowski 35 Oregon OH 30:49 9:55
77 6566 Lisa Bugbee 38 Northwood OH 30:50 9:56
78 4224 Becky Baumer 39 North Baltimore OH 30:51 9:56
79 6255 Michelle Belegrin 39 Curtice OH 30:57 9:58
80 6347 Lisa Akeman 39 Toledo OH 31:11 10:02
81 5064 Danielle Kessler 35 Toledo OH 31:13 10:03
82 6548 Andrea Wade 38 Holland OH 31:16 10:04
83 6308 Michelle Zydorczyk 39 Toledo OH 31:18 10:05
84 7211 Shannon Peek 37 Southgate MI 31:20 10:05
85 4866 Meredith Mercurio 37 Holland OH 31:22 10:06
86 6372 Jennifer Gill 38 Holland OH 31:36 10:11
87 4201 Catherine Staelgraeve 36 Monroe MI 31:38 10:11
88 5854 Jennifer Spencer 38 Swanton OH 31:45 10:13
89 5886 Tim McStay 35 Oregon OH 31:47 10:14
90 5057 Jennifer Glassman 39 Toledo OH 31:50 10:15
91 6770 Amy Pavlica 38 Perrysburg OH 32:01 10:19
92 4114 Julia Douglas 38 Dundee MI 32:03 10:19
93 5393 Christine Miles 39 Sylvania OH 32:04 10:20
94 5768 Rachel Stewart 36 Port Clinton OH 32:05 10:20
95 6392 Jody Lane 38 Wauseon OH 32:10 10:22
96 4023 Angie Fredericksen 36 Curtice OH 32:16 10:24
97 6929 Cherie Schneider 39 Toledo OH 32:30 10:28
98 5835 Tara Conklin 36 Fayette OH 32:31 10:28
99 6754 Stacy Mitchell 37 Toledo OH 32:34 10:29
100 6275 Swiger Heather 37 Whitehouse OH 32:34 10:29
101 7029 Bridget Verrengia 35 Bowling Green OH 32:38 10:31
102 6952 Michelle Vandusen 39 Maumee OH 32:42 10:32
103 4922 Mary Jo French 38 Perrysburg OH 32:43 10:32
104 4341 Shannon Sieler 39 Monroe MI 32:44 10:32
105 5208 Kate Kelley 36 Toledo OH 32:47 10:33
106 4930 Kelli Kopp 38 Perrysburg OH 32:51 10:35
107 4642 Rhonda Amspaugh 38 Waterville OH 32:54 10:36
108 6744 Kristina Lohmeyer 35 Oregon OH 32:54 10:36
109 6246 Windy Tracy 36 Continental OH 32:55 10:36
110 7224 Robin Fowler 39 Perrysburg OH 33:03 10:39
111 5552 Cathy Harris 37 Whitehouse OH 33:13 10:42
112 4717 Mona Taylor 35 Toledo OH 33:26 10:46
113 4183 Sherrie Pisarsky 38 Toledo OH 33:35 10:49
114 5015 Dana Holzemer 35 Whitehouse OH 33:43 10:52
115 6962 Brenda Bal 39 Toledo OH 33:45 10:52
116 5585 Erin O'Connell 38 Swanton OH 33:49 10:53
117 5579 Jennifer Muck 37 Perrysburg OH 33:57 10:56
118 5758 Julie Pope 36 Monroe MI 33:58 10:56
119 6553 Rachel Williams 35 Northwood OH 34:07 10:59
120 5201 Wendy Caris 35 Toledo OH 34:14 11:01
121 4460 Carrie Baynes 35 Archbold OH 34:17 11:02
122 5595 Niki Shadle 38 Sylvania OH 34:25 11:05
123 4921 Teri Ellis 36 Toledo OH 34:27 11:06
124 6043 Kami Garcia 35 Fostoria OH 34:28 11:06
125 6446 Heather Ameling 39 Perrysburg OH 34:34 11:08
126 4072 Kristy Valleroy 39 Oregon OH 34:40 11:10
127 5913 Andrea Dean 37 Toledo OH 34:45 11:11
128 5766 Kimberly Smallman 38 Metamora OH 34:47 11:12
129 4926 Tara Henricks 36 Lyons OH 34:48 11:12
130 5044 Heather Becker 37 Bowling Green OH 34:52 11:14
131 5068 Beth Mason 38 Temperance MI 35:04 11:18
132 6242 Corryn Smith 36 Toledo OH 35:06 11:18
133 6987 Cherie Gommel 37 Toledo OH 35:08 11:19
134 4150 Jeannine Keck 37 Samaria MI 35:09 11:19
135 5873 Julie Forgach 38 Sylvania OH 35:12 11:20
136 5006 M Grabitz 38 Temperance MI 35:15 11:21
137 6418 Julie Scharf 39 Toledo OH 35:15 11:21
138 4574 Deb Chaney 39 Perrysburg OH 35:22 11:23
139 6244 Gerryann Stolzenburg 36 Monclova OH 35:23 11:24
140 6229 Meredyth MacKey 38 Whitehouse OH 35:25 11:24
141 4297 Malissa Whited 36 Monroe MI 35:27 11:25
142 6458 Kelly Carrier 39 Adrian MI 35:35 11:28
143 6977 Teresa King 38 Sylvania OH 35:39 11:29
144 7263 Shannon Benge 37 Perrysburg OH 35:43 11:30
145 4769 Diana Holliday 39 Perrysburg OH 35:44 11:31
146 6093 Cheryl McCarthy 38 Monroe MI 35:45 11:31
147 5524 Kristen Sutherland 36 Toledo OH 35:50 11:32
148 4470 Jill Kominek 38 Erie MI 35:56 11:34
149 4081 Cheryl Witty 37 Holland OH 36:03 11:37
150 5743 Bridget Huss 36 Lambertville MI 36:04 11:37
151 5018 April Klocke 36 Adrian MI 36:13 11:40
152 6330 Pamela Zahniser 38 Temperance MI 36:35 11:47
153 4855 Karen Braden 35 Toledo OH 37:11 11:58
154 4025 Laura Glover 38 Sylvania OH 37:26 12:03
155 4878 Rebecca Alperin 36 Toledo OH 38:09 12:17
156 4650 Kelly Ford 35 Maumee OH 38:13 12:18
157 6365 Liz Felaris 39 Perrysburg OH 38:18 12:20
158 4760 Cathy Baldwin 39 Toledo OH 38:19 12:20
159 6306 Amy Wilcox 36 Haskins OH 38:20 12:21
160 4587 Stephanie Kuhlman 38 Toledo OH 38:58 12:33
161 6926 Kristy Spackey 35 Perrysburg OH 39:10 12:37
162 4197 Jen Skeldon 36 Toledo OH 39:23 12:41
163 6115 Jennifer Barto 35 Toledo OH 39:26 12:42
164 4837 Jennifer Smith 39 Swanton OH 39:53 12:50
165 5476 Susan Secrist 39 Wayne OH 40:26 13:01
166 6577 Mandy Eigensee 36 Maumee OH 41:34 13:23
167 7091 Michelle McJunkin 35 Toledo OH 41:34 13:23
168 6921 Asta Lesniauskiene 38 Maumee OH 41:46 13:27
169 4129 Krystal Gadoury 39 Toledo OH 41:49 13:28
170 5097 Jenifer Wiles 39 Swanton OH 42:17 13:37
171 4434 Ericka Goings 39 Toledo OH 42:41 13:45
172 4481 Renee Rozanski 35 Toledo OH 43:09 13:54
173 5997 Amy Elliott 36 Waterville OH 43:20 13:57
174 274 Nikki Smith 36 Perrysburg OH 43:51 14:07
175 5047 Tina Bryant 39 Whitehouse OH 43:52 14:08
176 7144 Chandra Poszekaj 38 Neapolis OH 43:54 14:08
177 7002 Rachel Potter 38 Millbury OH 46:19 14:55
178 4792 Andrea Dooley 36 Toledo OH 46:27 14:58
179 5225 Amy Daunhauer 36 Toledo OH 46:29 14:58
180 6396 Kristan Lillich 38 Northwood OH 46:53 15:06
181 7035 Sarah Short 35 Port Clinton OH 47:08 15:10
182 4838 Sara Tanner 38 Wauseon OH 52:03 16:46
183 4133 Linda Green 38 Fostoria OH 53:38 17:16
184 5312 Melissa Brinkman 39 Weston OH 56:16 18:07
185 5895 Jill Schupp 36 Toledo OH 56:54 18:19
186 5639 Tina Miller 38 Toledo OH 59:24 19:07
187 5712 Jody Hartzell 35 Perrysburg OH 1:01:02 19:39
188 5275 Laura Rodriguez 37 Wauseon OH 1:02:55 20:15
189 4507 Hannah Sarnow 39 Maumee OH 1:07:06 21:36
190 4900 Tabitha Deal 38 Sandusky OH 1:09:41 22:26
191 4329 Kelly Nagel 36 Wauseon OH 1:13:48 23:45
192 5198 Chola Bertram 37 Toledo OH 1:25:18 27:28
193 4692 Brenda Hoffman 37 Holland OH 1:33:30 30:06
194 6732 Meredith Minoske 38 Perrysburg OH 1:33:54 30:14
195 6060 Anne Moran 38 Perrysburg OH 1:36:10 30:57



MALE AGE GROUP: 40-44
Place No. Name Age City St Time Pace
===== ===== ====================== === =============== == ======= =====
1 6779 Tim Eckel 42 Perrysburg OH 20:13 6:31
2 6368 Scott Forsythe 44 Toledo OH 20:28 6:36
3 7237 Joe Shoots 40 Toledo OH 20:54 6:44
4 6402 Wesley McKee 44 Lambertville MI 21:05 6:47
5 6773 Ray Miller 41 Toledo OH 21:17 6:51
6 6171 Dan Gehling 42 Sylvania OH 21:17 6:52
7 5850 Keith Sample 41 Waterville OH 21:25 6:54
8 5731 Carmelo Carrubba 41 Toledo OH 21:38 6:58
9 7077 Gary Peters 40 Blissfield MI 21:53 7:03
10 7048 Kim Kerstetter 42 Oregon OH 22:24 7:13
11 4712 Jeffery Stephens 41 Sylvania OH 22:24 7:13
12 6331 Mark Zydorczyk 43 Toledo OH 22:25 7:13
13 6415 James Rhegness 41 Toledo OH 22:29 7:14
14 5904 Rick Briars 41 Maumee OH 22:40 7:18
15 6529 Chris Ritchey 43 Toledo OH 22:42 7:19
16 5040 Craig Wisniewski 44 Oregon OH 22:50 7:21
17 6954 Jim Pool 41 Toledo OH 23:03 7:26
18 4333 Eric Orians 42 Findlay OH 23:18 7:30
19 5508 David Henderson 40 Toledo OH 23:24 7:32
20 6924 Troy Adams 40 Rossford OH 23:31 7:34
21 6763 Jerry Galernik 42 Perrysburg OH 23:41 7:38
22 4647 Michael Boaden 43 Toledo OH 23:51 7:41
23 7032 Thomas Matthew 40 Toledo OH 24:04 7:45
24 5096 Ron White 43 Perrysburg OH 24:20 7:50
25 4915 Peter Areddy 44 Maumee OH 24:20 7:50
26 5715 Todd Lystad 41 Toledo OH 24:28 7:53
27 5205 Jim Fritz 40 Whitehouse OH 24:30 7:54
28 6776 John Cavanagh 44 Perrysburg OH 24:32 7:54
29 6440 Brent Wettle 42 Whitehouse OH 24:35 7:55
30 6377 Dan Hirsch 42 Oregon OH 24:45 7:58
31 4902 Toriano Greene 40 Toledo OH 24:51 8:00
32 6710 Robert Tomten 40 Toledo OH 25:10 8:06
33 7154 David Aldrich 44 Walbridge OH 25:11 8:07
34 4055 Brad Olson 43 Maumee OH 25:12 8:07
35 5962 Joe Howe 40 Toledo OH 25:17 8:08
36 6836 Chris Kane 42 Maumee OH 25:30 8:13
37 6159 Michael Brown 41 Sylvania OH 25:31 8:13
38 5288 Keith Duhaime 44 Perrysburg OH 25:33 8:14
39 4306 Derek Booth 41 Holland OH 25:33 8:14
40 6669 Chad Bzovi 44 Wauseon OH 25:51 8:20
41 6843 Rod Cooper 41 Maumee OH 26:16 8:28
42 5824 Anders Jacobson 42 Woodville OH 26:20 8:29
43 7049 Gerald Linares 40 Toledo OH 26:24 8:30
44 5297 William Rose 44 Toledo OH 26:37 8:34
45 5010 Jason Hamilton 40 Toledo OH 26:49 8:38
46 5958 Matt Cooper 41 Toledo OH 27:05 8:43
47 6192 Andre Page 40 Toledo OH 27:19 8:48
48 6752 Ken Wood 44 Maumee OH 27:32 8:52
49 5173 Tavis Glassman 40 Toledo OH 27:34 8:53
50 5163 Marty Orr 41 Sylvania OH 27:35 8:53
51 5005 Peter Gorman 40 Toledo OH 27:36 8:53
52 6750 Brian Newberg 44 Perrysburg OH 27:48 8:57
53 6404 Steve Mitchell 43 Toledo OH 27:50 8:58
54 4868 Jeffrey Nonekowski 40 Oregon OH 28:00 9:01
55 6798 Brian Juchartz 41 Temperance MI 28:28 9:10
56 6674 David Dewitz 42 Oak Harbor OH 28:35 9:12
57 7006 Jeff Kwiatkowski 42 Sylvania OH 28:54 9:19
58 7025 Robert Koch 43 Swanton OH 28:56 9:19
59 6703 Dereck Rush 40 Oregon OH 29:17 9:26
60 6397 Tracy Love 43 Alvada OH 29:22 9:28
61 7089 Kevin Kill 41 Sylvania OH 29:46 9:35
62 4037 Marc Kaspitzke 42 Rossford OH 29:48 9:36
63 5954 Jeff Adduci 44 Temperance MI 29:49 9:36
64 5705 Robert Ashby 44 Michigan Center MI 29:51 9:37
65 5830 Tim Andrassy 41 Toledo OH 30:15 9:44
66 4979 Ben McMurray 42 Toledo OH 30:16 9:45
67 6717 Eric Heintschel 40 Oregon OH 30:23 9:47
68 7267 John Hoffman 42 Sylvania OH 30:26 9:48
69 5291 Daniel Hutchison 42 Toledo OH 30:39 9:52
70 5503 Scott Goins 42 Monroe MI 30:47 9:55
71 4014 David Duhamel 43 Bowling Green OH 30:48 9:55
72 6780 Jeffery Schroeder 44 Toledo OH 31:09 10:02
73 7226 Jerry Welch 41 Holland OH 32:22 10:25
74 6322 Michael Smith 41 Toledo OH 32:34 10:29
75 6928 Glenn Weisner 44 Sylvania OH 32:43 10:32
76 6864 Timothy Mays 44 Perrysburg OH 33:06 10:40
77 6477 A.J. Fuller 42 Bowling Green OH 33:07 10:40
78 5525 Bob Thomason 40 Perrysburg OH 33:28 10:47
79 5858 Divya Vijendra 40 Sylvania OH 33:56 10:56
80 6707 James Snow 44 Toledo OH 33:57 10:56
81 6120 Jeffrey Hudson 41 Perrysburg OH 34:10 11:00
82 5955 Neal Applin 40 Toledo OH 35:12 11:20
83 6685 Chris Hodge 40 Whitehouse OH 35:12 11:20
84 5848 Andy Pienta 40 Lambertville MI 35:15 11:21
85 5491 Mike Bolan 42 Northwood OH 35:37 11:28
86 4774 Mark Nowicki 44 Holland OH 35:45 11:31
87 4517 Jack Lockert 43 Toledo OH 36:28 11:45
88 5670 Dan McHugh 43 Toledo OH 37:36 12:07
89 5318 Neil Doherty 42 Wauseon OH 41:09 13:15
90 6004 Douglas Hotmer 43 Toledo OH 43:43 14:05
91 5038 Mark Weber 43 Bowling Green OH 51:12 16:29
92 5480 Thomas Woodrum 42 Oregon OH 58:01 18:41



FEMALE AGE GROUP: 40-44
Place No. Name Age City St Time Pace
===== ===== ====================== === =============== == ======= =====
1 7222 Melissa Weisner 42 Sylvania OH 20:44 6:41
2 5265 Lori Lamb 42 Monclova OH 21:37 6:58
3 4728 Shelly Donahue 41 Sylvania OH 23:44 7:39
4 6568 Ryndie Bzovi 43 Wauseon OH 23:56 7:42
5 4501 Jennie Lambert 44 Perrysburg OH 24:01 7:44
6 5456 Julie Thomas 40 Maumee OH 24:26 7:52
7 6202 Jenny Vartanian 41 Toledo OH 24:29 7:53
8 6265 Rebecca Criss 41 Toledo OH 24:39 7:56
9 4952 Kathy Losey 40 Sylvania OH 24:45 7:58
10 5066 Randi Lydum 44 Defiance OH 24:49 8:00
11 4268 Linda McKown 42 Sylvania OH 24:53 8:01
12 5232 Jill Mahoney 42 Monroe MI 25:02 8:04
13 4959 Kathy Onnenga 41 Toledo OH 25:26 8:12
14 6401 Julie McCaughey 42 Swanton OH 25:33 8:14
15 5884 Lori Mahoney 40 Sylvania OH 25:34 8:14
16 5945 Kendra Tinney 40 Sylvania OH 25:39 8:16
17 5063 Kerri Kemp 42 Perrysburg OH 25:40 8:16
18 4453 Shannon Roberts 42 Lambertville MI 25:42 8:17
19 6795 Debbie Krall 40 Perrysburg OH 25:49 8:19
20 4683 Donna Fairfax 43 Norwalk OH 25:55 8:21
21 7214 Cindy Siefert 42 Sylvania OH 25:59 8:22
22 7135 Ann Glowacki 40 Perrysburg OH 26:01 8:23
23 4746 Jennifer Postlewaite 41 Troy OH 26:17 8:28
24 265 Patti Burke 44 Temperance MI 26:24 8:30
25 4477 Natalie Meyer 43 Wauseon OH 26:24 8:30
26 5231 Tami Lonsway 40 Sylvania OH 26:33 8:33
27 6569 Betsy Carter 42 Toledo OH 26:33 8:33
28 4752 Laura St. John 43 Haskins OH 26:56 8:40
29 6421 Emily Schroder 40 Perrysburg OH 27:27 8:50
30 6482 Tracy Graham 40 Toledo OH 27:32 8:52
31 6844 Linda Brohl 42 Monclova OH 27:45 8:56
32 4104 Wendy Clark 44 Perrysburg OH 27:47 8:57
33 6525 Lori Poulin 42 Perrysburg OH 27:56 9:00
34 4074 Cathy Van Stone 42 Monroe MI 28:02 9:02
35 264 Shellie Semler 40 Toledo OH 28:03 9:02
36 6226 Patricia Kopke 42 Holland OH 28:04 9:03
37 5657 Wendy Yeager 44 Toledo OH 28:05 9:03
38 5805 Amy Reed 40 Gibsonburg OH 28:05 9:03
39 7007 Bridget Kwiatkowski 41 Sylvania OH 28:07 9:03
40 4745 Laurie Osmena 44 Toledo OH 28:08 9:04
41 7132 Katie Abernathey 40 Sylvania OH 28:15 9:06
42 5897 Tammy Smith 44 Tiffin OH 28:24 9:09
43 4431 Martha Wielinski 43 Waterville OH 28:33 9:12
44 224 Kimberly Wilder-Fische 41 Defiance OH 28:36 9:13
45 4672 Kelli Zacharias 44 Cleveland OH 28:54 9:19
46 5437 Diana Diels 41 Gibsonburg OH 28:58 9:20
47 6375 Christina Harper 42 Pemberville OH 29:04 9:22
48 5592 Dee Reinhart 41 Sylvania OH 29:04 9:22
49 7013 Becky Bennett 42 Holland OH 29:10 9:23
50 6639 Becky Rush 40 Oregon OH 29:14 9:25
51 7262 Stacy Stephenson 40 Toledo OH 29:21 9:27
52 6097 Traci Panuto 40 Findlay OH 29:23 9:28
53 4026 Judy Graeff 43 Toledo OH 29:24 9:28
54 5049 Cecilia Castellano 43 Perrysburg OH 29:27 9:29
55 5611 Kristen Brotzki 44 Bowling Green OH 29:27 9:29
56 5944 Patty Terry 41 Toledo OH 29:32 9:31
57 5748 Amy Kaiser 41 Toledo OH 29:36 9:32
58 4225 Julie Bialecki 43 Toledo OH 29:44 9:34
59 4677 Patricia Clark 44 Carleton MI 29:47 9:36
60 5863 Tammie Adduci 43 Temperance MI 29:49 9:36
61 5386 Christine Kahan 42 Sylvania OH 29:50 9:36
62 6012 Kimberly Molnar 41 Maumee OH 29:59 9:39
63 5030 Wendy Smith 41 Temperance MI 30:00 9:40
64 5140 Elizabeth Strbik 40 Holland OH 30:02 9:40
65 6800 Beth Murray 44 Youngstown OH 30:04 9:41
66 5587 Laura Oehlers 42 Lambertville MI 30:18 9:46
67 6041 Kristen Fritz 41 Maumee OH 30:24 9:47
68 5142 Judie Swartz 43 Toledo OH 30:25 9:48
69 5775 Patricia Ashby 42 Michigan Center MI 30:31 9:50
70 5255 Rachel Eckert 41 Maumee OH 30:31 9:50
71 5790 Stacey Kiel 42 Perrysburg OH 30:35 9:51
72 6645 Kim Snyder 40 Swanton OH 30:37 9:51
73 6806 Elizabeth David 43 Toledo OH 30:37 9:52
74 4164 Ann McCormick 43 Lyons OH 30:47 9:55
75 4852 Annette Shadler 41 Toledo OH 30:47 9:55
76 5335 Bonnie Nelson 41 Maumee OH 30:48 9:55
77 246 Susan Monegan 41 Sylvania OH 30:50 9:56
78 4296 Cindi White 43 Perrysburg OH 30:51 9:56
79 5950 Donna Waldron 44 Toledo OH 30:53 9:57
80 5306 Kim Henderson 44 Perrysburg OH 30:58 9:58
81 4020 Kate Fischer 42 Metamora OH 31:07 10:01
82 4120 Mary Jo Fischer 42 Metamora OH 31:07 10:01
83 7280 Marie Schroeder 43 Toledo OH 31:09 10:02
84 5415 Dawn Vandenbroek 40 Sylvania OH 31:15 10:04
85 4189 Kristine Ritter 40 Wauseon OH 31:26 10:07
86 4624 Kelli Woods 40 Whitehouse OH 31:26 10:08
87 5279 Sheree Scherger 42 Findlay OH 31:33 10:09
88 5203 Laura Crandall 40 Toledo OH 31:51 10:15
89 6064 Rosetta Reiser 44 Wauseon OH 31:52 10:16
90 5468 Patrick Monegan 42 Sylvania OH 31:58 10:18
91 6145 Denise Dashner 41 Temperance MI 32:02 10:19
92 5902 Dawn Whitaker 41 Toledo OH 32:05 10:20
93 6189 Trish Miller 41 Maumee OH 32:19 10:25
94 7163 Karry Marcy 40 Maumee OH 32:19 10:25
95 4211 Sheri Wehri 41 Ottawa OH 32:24 10:26
96 250 Jenny Engle 42 Adrian MI 32:37 10:30
97 207 Kelly Antalek 44 Adrian MI 32:38 10:30
98 6985 Kelli Stegman 42 Perrysburg OH 32:43 10:32
99 5281 Aviva Simonte 43 Ann Arbor MI 32:45 10:33
100 7138 Chris Baum 43 Temperance MI 32:47 10:33
101 5744 Cori Jacobson 41 Woodville OH 32:52 10:35
102 6769 Cathy Carr 41 Big Pine Key FL 32:53 10:35
103 6269 Nancy Gagnet 44 Maumee OH 33:04 10:39
104 270 Bernice Kachur 42 Oregon OH 33:11 10:41
105 5454 Debbie Sebring 41 Riga MI 33:16 10:43
106 6590 Marnie Hallett-Szyman 41 Oak Harbor OH 33:21 10:45
107 5234 Tina Orr 41 Sylvania OH 33:33 10:48
108 7178 Kelly Grimm 42 Sylvania OH 33:37 10:49
109 5388 Tammy Kiker 42 Swanton OH 33:41 10:51
110 6190 Cindy Molitor 40 Sylvania OH 33:55 10:55
111 6250 Molly Wyrick 41 Monclova OH 33:56 10:56
112 4310 Carol Dalrymple 41 Ottawa OH 33:58 10:56
113 5772 Tina Varga 41 Swanton OH 33:59 10:56
114 4697 Angie Minniear 40 Maumee OH 34:01 10:57
115 263 Kristi Noviski 40 Toledo OH 34:03 10:58
116 6995 Tricia Harrel-King 41 Sylvania OH 34:04 10:58
117 5898 Amy Trevino 42 Toledo OH 34:21 11:04
118 4131 Kerry Gonzalez 40 Millbury OH 34:38 11:09
119 5465 Kathy Hermiller 41 Sylvania OH 34:51 11:13
120 7175 Toni Feltman 44 Toledo OH 34:53 11:14
121 6441 Christina Whitmore 41 Oregon OH 35:05 11:18
122 5368 Ling Dixon 41 Sylvania OH 35:19 11:22
123 4649 Sophia Fisher 42 Toledo OH 35:32 11:27
124 4702 Dawn Nowicki 44 Holland OH 35:45 11:31
125 7187 Ginger Duhaime 40 Perrysburg OH 36:05 11:37
126 4558 Vanessa Martin 41 Perrysburg OH 36:06 11:37
127 4864 Jennifer Hensley 40 Toledo OH 36:26 11:44
128 4471 Darin Lockert 41 Toledo OH 36:28 11:45
129 7269 Sara Hoffman 42 Sylvania OH 36:53 11:53
130 5518 Ethel Perry 44 Toledo OH 36:59 11:55
131 6256 Angela Below 41 Toledo OH 37:01 11:55
132 252 Teresa McHugh 43 Toledo OH 37:37 12:07
133 4943 Lisa Allison 41 Temperance MI 37:48 12:10
134 4246 Tina Double 43 Morenci MI 37:49 12:11
135 7164 Charneal Merrell 40 Toledo OH 37:53 12:12
136 4709 Janice Servick 43 Elmore OH 37:54 12:12
137 6318 Jill Petee 42 Napoleon OH 37:55 12:13
138 4115 Molly Duhamel 40 Bowling Green OH 37:56 12:13
139 5908 Kerry Colley 43 Temperance MI 37:59 12:14
140 5629 Tracy Hoppenjans 40 Toledo OH 38:03 12:15
141 4809 Laura Harris 42 Toledo OH 38:04 12:16
142 4939 Melissa Shaner 43 Toledo OH 38:09 12:17
143 6555 Joe Young 44 Perrysburg OH 38:17 12:20
144 6015 Lesley Quinlan 41 Lambertville MI 39:14 12:38
145 4328 Juanita McDaniel 43 Toledo OH 39:53 12:50
146 5643 Andrea Petrie 44 Perrysburg OH 40:28 13:02
147 6558 Gina Alatalo 42 Petersburg MI 40:53 13:10
148 6686 Antoinette Howard 44 Akron OH 41:04 13:14
149 5620 Nina Goins 44 Monroe MI 41:10 13:15
150 5235 Kristin Otley 41 Bowling Green OH 41:39 13:25
151 6383 Dawn Humphrey 42 Toledo OH 46:43 15:02
152 4856 Denise Burns 44 Fremont OH 47:04 15:09
153 6240 Lori Savanyu 42 South Lyon MI 47:56 15:26
154 6040 Kelly Fowler 42 Walled Lake MI 47:57 15:26
155 5155 Lisa Hauser 40 Deerfield MI 53:30 17:14
156 4361 Shirley Bledsoe 43 Napoleon OH 59:53 19:17
157 4351 Dee Bialecki Haase 44 Perrysburg OH 1:00:49 19:35
158 4151 Christina Kennedy 41 Oregon OH 1:01:22 19:45
159 4062 Debbie Schultz 41 Rossford OH 1:01:24 19:46
160 4588 Karen Mossing 42 Holland OH 1:02:03 19:59
161 4101 Dawn Carpenter 44 Swanton OH 1:02:30 20:07
162 4406 Denise Franks 44 Wayne OH 1:03:00 20:17
163 4794 Valerie Johnson 40 Plymouth OH 1:09:41 22:26
164 4648 Maureen Bruno 44 Neapolis OH 1:09:52 22:30
165 5357 Shelli Beck 44 Fremont OH 1:10:54 22:49
166 4487 Angela Ash 40 Whitehouse OH 1:14:06 23:51
167 4365 Connie Brand 42 Northwood OH 1:17:25 24:55
168 7153 Karen Baumgartner 43 Perrysburg OH 1:17:57 25:06
169 6018 Amy Slusher 40 Clyde OH 1:18:24 25:14
170 5374 Lisa Evans 40 Perrysburg OH 1:31:29 29:27
171 5632 Tiffany Hyland 44 Perrysburg OH 1:35:17 30:41
172 6019 Lynn Smith 41 Toledo OH 1:36:03 30:55



MALE AGE GROUP: 45-49
Place No. Name Age City St Time Pace
===== ===== ====================== === =============== == ======= =====
1 7053 Christopher Olivarez 49 Oregon OH 20:13 6:31
2 5165 Mike Palmer 48 Adrian MI 20:30 6:36
3 7075 Scott Sample 47 Oregon OH 20:42 6:40
4 7203 Robert Rodriguez 48 Grand Rapids OH 20:51 6:43
5 7243 Jonathan Hill 47 Temperance MI 21:05 6:48
6 4318 Patrick Hickey 48 Toledo OH 21:54 7:03
7 5290 Robert Hovland 49 Perrysburg OH 22:38 7:17
8 5880 Bradley Johnson 48 Toledo OH 22:54 7:23
9 7122 Todd Richard 48 Toledo OH 22:54 7:23
10 7082 Mark Scherer 48 Bowling Green OH 22:55 7:23
11 6366 Keith Fitchpatric 47 Oregon OH 23:23 7:32
12 4452 Tim Roberts 45 Lambertville MI 23:38 7:37
13 6904 Tom Hauck 47 Toledo OH 23:47 7:40
14 5196 Steven Barmash 48 Toledo OH 23:53 7:41
15 4573 John Chaney 47 Perrysburg OH 23:56 7:43
16 5301 Maurice Vallejo 49 Sylvania OH 24:03 7:45
17 7017 Thomas Everett 46 Sylvania OH 24:16 7:49
18 4422 Youssef Sari 46 Toledo OH 24:22 7:51
19 5964 Ray Kelble 49 Metamora OH 24:26 7:52
20 4845 John Gears 49 Toledo OH 24:27 7:53
21 4719 Todd Tomlinson 48 Bryan OH 24:33 7:54
22 5210 Dave Laraway 47 Toledo OH 24:44 7:58
23 5012 Michael Herrmann 45 Sylvania OH 24:45 7:58
24 6687 Steve Jenkins 48 Sylvania OH 24:58 8:02
25 4595 Daryl Smith 47 Holland OH 24:59 8:03
26 4976 Vince Brown 47 Wauseon OH 25:17 8:09
27 4515 Zuchowski Joseph 47 Toledo OH 25:32 8:13
28 6479 Robert Gladieux 46 Oregon OH 25:44 8:17
29 6162 Mark Cacciatore 49 Napoleon OH 25:45 8:18
30 5814 John Broer 48 Sylvania OH 25:52 8:20
31 5985 Bill Bartholomew 46 Perrysburg OH 26:06 8:24
32 4665 Don Rettig 45 Maumee OH 26:07 8:25
33 5678 Ralph Sampson 49 Petersburg MI 26:10 8:26
34 4908 Tim Manning 48 Bryan OH 26:14 8:27
35 6839 Michael Gossett 48 Sylvania OH 26:18 8:28
36 5856 Mark Suttonff 48 Whitehouse OH 26:29 8:32
37 5474 Rex Roehrig 46 Sylvania OH 26:32 8:33
38 4783 Jeff Smith 47 Oregon OH 26:32 8:33
39 6697 Gene Pease 47 Luckey OH 26:33 8:33
40 6694 David McMurray 46 Toledo OH 26:33 8:33
41 4353 Dave Haase 46 Perrysburg OH 26:43 8:36
42 4667 Blake Stoddard 45 Perrysburg OH 26:44 8:37
43 5673 Bob Petrie 48 Perrysburg OH 26:46 8:37
44 6329 Clarence Young 46 Sylvania OH 26:58 8:41
45 6751 Kurt Rife 45 Custar OH 27:06 8:44
46 6156 Frank Avina 46 Sylvania OH 27:08 8:44
47 5665 Marshall Goldstein 46 Toledo OH 27:11 8:45
48 6399 John Maher 47 Perrysburg OH 27:13 8:46
49 4889 Jim Crum 45 Waterville OH 28:25 9:09
50 4549 Patrick Fischer 45 Defiance OH 28:35 9:12
51 5682 John Thebes 49 Sylvania OH 28:36 9:13
52 6180 Randy Kopke 47 Holland OH 28:37 9:13
53 7018 Reginald Truss 46 Toledo OH 28:45 9:16
54 5339 Bob Rugg 48 Toledo OH 29:11 9:24
55 7045 Keith Tremmel 49 Swanton OH 29:21 9:27
56 5668 David Kohler 48 Perrysburg OH 29:27 9:29
57 4451 Jeff Ramirez 47 Toledo OH 29:32 9:31
58 4161 Rob Loeb 48 Toledo OH 29:36 9:32
59 5016 Steve Kahan 45 Sylvania OH 29:49 9:36
60 4325 Terrence Lewis 47 Holland OH 29:53 9:37
61 6369 Tim Gangway 47 Sylvania OH 29:59 9:39
62 4082 James Wright 49 Toledo OH 30:01 9:40
63 5837 Kevin Dojcsak 47 Temperance MI 30:13 9:44
64 4799 Dave Riffer 47 Perrysburg OH 30:34 9:51
65 5178 Kevon Martis 45 Riga MI 30:36 9:51
66 6193 Matthew Plessner 47 Northwood OH 30:43 9:53
67 5206 Alan Henderson 45 Perrysburg OH 30:57 9:58
68 6705 Roger Sheahan 46 Curtice OH 31:14 10:04
69 5669 Mark Koury 46 Toledo OH 31:20 10:05
70 6865 Mike Ellis 45 Toledo OH 31:35 10:10
71 4640 Chris Nowak 49 Waterville OH 31:52 10:16
72 6315 Ken Miller 49 Maumee OH 32:17 10:24
73 5971 Chris Urbanski 48 Toledo OH 32:27 10:27
74 4690 Jerel Hess 45 Sylvania OH 32:45 10:33
75 7115 Anthony Rasczyk 47 Toledo OH 33:05 10:39
76 5219 David Zack 45 Sylvania OH 33:05 10:39
77 5722 Jerome Schultz 45 Erie MI 33:05 10:39
78 5972 James Waldron 45 Toledo OH 34:48 11:12
79 4974 Darrin Ammons 46 Findlay OH 34:54 11:14
80 6370 Robert Gibson 49 Sylvania OH 36:23 11:43
81 6940 Neil Sullivan 49 Toledo OH 36:38 11:48
82 4894 Don Leonard 48 Toledo OH 36:39 11:48
83 6718 Kim Jackson 46 Toledo OH 36:40 11:48
84 4634 Kevin Swint 47 Sylvania OH 36:55 11:53
85 6546 Lisa Urrutia 46 Toledo OH 36:55 11:53
86 5496 Avery Cooper 47 Toledo OH 36:57 11:54
87 6140 Joe Sweeney 46 Toledo OH 38:01 12:14
88 6013 Tim Nelson 47 Whitehouse OH 39:15 12:38
89 6333 James Below 48 Toledo OH 41:44 13:26
90 7209 Alan Gilliland 47 Toledo OH 42:13 13:36
91 6797 Donald Emmons 46 Toledo OH 43:04 13:52
92 5672 John Oehlers 47 Lambertville MI 43:06 13:53
93 5968 Phil Skeldon 49 Sylvania OH 59:39 19:12



FEMALE AGE GROUP: 45-49
Place No. Name Age City St Time Pace
===== ===== ====================== === =============== == ======= =====
1 5127 Cathy Palmer 47 Adrian MI 22:52 7:22
2 6353 Denise Bevens 49 Sylvania OH 24:09 7:47
3 4202 Tina Steinhauser 49 Maumee OH 25:06 8:05
4 5618 Donna Fox 49 Maumee OH 25:08 8:06
5 7257 Pamela Krizman 48 Toledo OH 25:15 8:08
6 6249 Wendy Wexler 45 Temperance MI 25:22 8:10
7 7084 Nicolette Warr 48 Cincinnati OH 25:23 8:10
8 5759 Melinda Price 46 Waterville OH 25:27 8:12
9 6065 Pam Stafford 47 Lansing MI 25:42 8:17
10 5780 Kelly Dean 49 Waterville OH 26:01 8:23
11 7056 Eva Algarin 49 Oregon OH 26:17 8:28
12 6514 Lisa McMurray 45 Toledo OH 26:43 8:36
13 6473 Lynne Forsythe 47 Toledo OH 26:49 8:38
14 7183 Melinda Hammontree 45 Wauseon OH 27:00 8:42
15 6209 Susan Avina 47 Sylvania OH 27:08 8:44
16 4219 Michelle Wright 47 Toledo OH 27:30 8:51
17 7086 Sheri Caldwell 45 Oregon OH 27:35 8:53
18 5060 Terri Herrmann 47 Sylvania OH 27:37 8:54
19 4035 Sue Jilek 46 Lambertville MI 27:42 8:55
20 5819 Susan Upham 46 Maumee OH 28:06 9:03
21 5422 Dawn Williams 46 Sylvania OH 28:10 9:04
22 209 Deanna Kiesel 47 Findlay OH 28:11 9:05
23 5914 Rebecca Etzinger 49 Findlay OH 28:11 9:05
24 208 Cheri Flagg 48 Elmore OH 28:12 9:05
25 5648 Colleen Schlea 45 Helena OH 28:17 9:07
26 5563 Chris Hunter 48 Napoleon OH 28:31 9:11
27 4603 Brenda Belcher 45 Temperance MI 28:31 9:11
28 253 Lisa Thebes 45 Sylvania OH 28:36 9:13
29 6011 Kenya Meeks 45 Swanton OH 28:45 9:16
30 5351 Marcia Wolford 46 Portage OH 28:52 9:18
31 7218 Barbara Meyers 47 Toledo OH 29:05 9:22
32 5129 Elena Pappas 45 Sylvania OH 29:13 9:24
33 4105 Tami Coppes 48 Genoa OH 29:14 9:25
34 5634 Patty Koury 48 Toledo OH 29:20 9:27
35 4300 Cathy Yeager 45 Toledo OH 29:24 9:28
36 5355 Karen Angst 47 Toledo OH 29:34 9:31
37 5358 Beth Beham 49 Sylvania OH 29:39 9:33
38 4972 Tammy Wriker 47 Sandusky OH 29:42 9:34
39 6535 Arleen Shaffer 48 Oregon OH 29:45 9:35
40 4670 Cheryl Williams 49 Galion OH 29:51 9:37
41 5879 Meg Howard-Fuleky 45 Morenci MI 29:54 9:38
42 6953 Pamela Bryan 49 Oregon OH 29:55 9:38
43 6651 Kay Wait 46 Sylvania OH 29:58 9:39
44 235 Paula Prediger 46 Holland OH 30:18 9:46
45 6588 Rose Gunner 47 Maumee OH 30:25 9:48
46 4716 Mary Szychowski 49 Toledo OH 30:31 9:50
47 4688 Karen Hehl 48 Sylvania OH 30:51 9:56
48 6981 Stacy Meridith 49 Toledo OH 30:52 9:57
49 5417 Carolyn Vogtsberger 46 Maumee OH 30:53 9:57
50 4482 Vicki Seifert 48 Pemberville OH 30:55 9:58
51 4874 Anne Spenny 46 Toledo OH 30:56 9:58
52 5276 Cindy Russeau 45 Toledo OH 31:04 10:00
53 5882 Jaimie Krobath 48 Perrysburg OH 31:17 10:05
54 4686 Christine Gohr 45 Maumee OH 31:21 10:06
55 7031 Eileen Seegert 48 Jasper MI 31:22 10:06
56 4718 Chris Tomlinson 48 Bryan OH 31:25 10:07
57 5352 Julie Woodrum 45 Oregon OH 31:28 10:08
58 4715 Yvonne Stoner 47 Bowling Green OH 31:31 10:09
59 6363 Kelly Donahue 48 Sylvania OH 31:37 10:11
60 4122 Juliann Flage 47 Wayne OH 31:46 10:14
61 5633 Amy Keller 46 Perrysburg OH 31:49 10:15
62 5091 Sue Urbanski 48 Toledo OH 31:59 10:18
63 6167 Leslie Demarco 47 Sylvania OH 32:03 10:19
64 6289 Jodi Plocek 46 Monclova OH 32:13 10:22
65 4135 Robin Haymier 45 Toledo OH 32:21 10:25
66 6983 Laura Wyrick 45 Perrysburg OH 32:22 10:25
67 5885 Renee Mason 46 Sylvania OH 32:24 10:26
68 5949 Monica Urbanski 49 Toledo OH 32:27 10:27
69 5591 Tammey Plessner 46 Northwood OH 32:33 10:29
70 4392 Kim Turco 47 Sylvania OH 32:36 10:30
71 6000 Lisa Giaimo 47 Rossford OH 32:40 10:31
72 4597 Marcia Swint 47 Sylvania OH 32:58 10:37
73 5106 Kristin Blochowski 46 Maumee OH 33:03 10:39
74 5752 Amy Marshalko 45 Perrysburg OH 33:07 10:40
75 7274 Nancy Szczublewski 48 Perrysburg OH 33:12 10:42
76 5043 Angie Batt 45 Bowling Green OH 33:33 10:48
77 4083 Gayle Young 47 Toledo OH 33:34 10:49
78 4262 Dana Loeb 48 Toledo OH 33:41 10:51
79 4594 Lori Smith 48 Holland OH 33:52 10:54
80 4446 Sue Kittle 49 Rossford OH 33:53 10:55
81 5425 Kristin Wygant 45 Sylvania OH 34:06 10:59
82 4441 Laurie Davis 47 Temperance MI 34:09 11:00
83 6869 Kathleen Hall 49 Newport MI 34:40 11:10
84 4340 Suzie Sidell 46 Wakeman OH 34:51 11:13
85 6939 Laurie Sullivan 47 Toledo OH 35:03 11:17
86 4054 Joyce Nowak 47 Maumee OH 35:05 11:18
87 4995 Teresa Siebenaller 49 Toledo OH 35:10 11:19
88 5034 Zak Wachtell 47 Lambertville MI 35:29 11:26
89 7085 Penny Hedrick 45 Cincinnati OH 35:31 11:26
90 5045 Selene Bostdorff 49 Bowling Green OH 35:35 11:28
91 4321 Elisa Huss-Hage 48 Sylvania OH 36:05 11:37
92 7021 Greta Harris 48 Toledo OH 36:06 11:38
93 6384 Eleanor Hutton 48 Toledo OH 36:21 11:42
94 4217 Kelly Wingate 47 Holland OH 36:22 11:43
95 5121 Janet Lutz 46 Napoleon OH 36:31 11:45
96 7220 Kelly Roberts 49 Toledo OH 37:02 11:56
97 4426 Karen Woodring 49 Sherwood OH 37:02 11:56
98 5582 Char Newmister 47 Genoa OH 37:15 12:00
99 5229 Claire Hutchison 46 Toledo OH 37:19 12:01
100 4544 Karen Eggenschwiler 46 Sylvania OH 37:21 12:02
101 5509 Karen Huntley 47 Waterville OH 37:35 12:06
102 5013 Jodi Hess 46 Sylvania OH 37:59 12:14
103 4146 Susan Hullinger 46 Northwood OH 38:08 12:17
104 4740 Sue Lonsway 48 Toledo OH 38:55 12:32
105 6943 Suzanne Doualhy 46 Toledo OH 38:56 12:32
106 7282 Lisa Marine 45 North Baltimore OH 39:01 12:34
107 6357 Lynn Cooper 45 Perrysburg OH 39:13 12:38
108 6220 Gina Gangway 47 Sylvania OH 39:23 12:41
109 6172 Sherry Gibson 48 Maumee OH 39:48 12:49
110 4289 Tonnya Sullivan 47 Holland OH 39:53 12:51
111 4526 Sherri Tack 46 Kalamazoo MI 40:00 12:53
112 5464 Barbara Delph 48 Mount Vernon OH 40:06 12:55
113 7081 Kimme Scherer 47 Bowling Green OH 40:08 12:55
114 5834 Rose Chamberlain 48 Vickery OH 40:38 13:05
115 6526 Debbie Quigley 48 Perrysburg OH 41:08 13:15
116 5362 Jody Buehrer 46 Wauseon OH 41:08 13:15
117 5202 Linda Comadoll 47 Napoleon OH 41:19 13:18
118 5055 Felicia Durn 49 Maumee OH 42:13 13:36
119 7130 Awen Haynes-Burel 48 Toledo OH 42:23 13:39
120 7023 Cynthia Wilkes 46 Toledo OH 42:29 13:41
121 6432 Maribeth Tercha 46 Haskins OH 42:47 13:46
122 4805 Mindy Yap 47 Rossford OH 46:52 15:06
123 5381 Billie Hermes 47 Oak Harbor OH 47:08 15:11
124 6547 Terry Vanhoose 49 Fostoria OH 56:46 18:17
125 7042 Jayne Peseckis 47 Toledo OH 1:00:35 19:30
126 4085 Chris Zirkle 45 Wauseon OH 1:02:55 20:15
127 4654 Kim Hibbett 46 Toledo OH 1:08:40 22:06
128 5429 Rebecca Albright 46 Blissfield MI 1:09:03 22:14
129 4784 Diane Waggoner 47 Holland OH 1:11:25 23:00
130 257 Renee Moore 45 Toledo OH 1:12:31 23:21
131 6135 Sue Wright 48 Toledo OH 1:15:44 24:23
132 4765 Kim Davis 45 Lambertville MI 1:20:23 25:53
133 4768 Peggy Gendaszek 48 Maumee OH 1:23:17 26:49
134 5403 Kelly Pieh 47 Waterville OH 1:26:57 28:00
135 5919 Marlene Glanz 46 Waterville OH 1:27:46 28:15



MALE AGE GROUP: 50-54
Place No. Name Age City St Time Pace
===== ===== ====================== === =============== == ======= =====
1 5769 Dan Streb 52 Swanton OH 20:31 6:37
2 4206 Jay Utendorf 51 Woodville OH 20:44 6:41
3 5515 Ed MacKiewicz 50 Archbold OH 20:44 6:41
4 6470 Dave Eicher 54 Archbold OH 21:15 6:51
5 4854 Steve Zydorczyk 50 Toledo OH 21:31 6:56
6 6362 Larry Dilabbio 54 Toledo OH 21:38 6:58
7 6106 Robert Simon 51 Maumee OH 21:54 7:03
8 4671 William Woolridge 50 Toledo OH 22:36 7:17
9 5263 Tom Kolena 53 Toledo OH 22:56 7:23
10 5333 Jim Meinert 54 Sylvania OH 23:47 7:40
11 5664 Jude Fitzthum 51 Toledo OH 23:55 7:42
12 4319 James Hofmann 52 Maumee OH 24:20 7:50
13 5999 Ron Flowers 53 Deshler OH 24:23 7:51
14 6434 John Tobin 53 Marshall MI 24:51 8:00
15 4339 Ernest Seeman 53 Holland OH 25:10 8:06
16 5990 Stephen Ciucci 50 Sylvania OH 25:10 8:06
17 5600 Gary Tolles 52 Maumee OH 25:11 8:07
18 6138 Brad Moenter 51 Waterville OH 25:12 8:07
19 4042 Mike Lacey 54 Perrysburg OH 25:17 8:09
20 6022 Domingo Valadez 52 Temperance MI 25:23 8:10
21 5033 Bill Tapper 53 Toledo OH 25:25 8:11
22 4159 Robert Less 52 Holland OH 25:27 8:12
23 5062 Greg Hook 51 Oregon OH 25:30 8:13
24 6231 Chris McCormick 51 Toledo OH 25:31 8:13
25 5499 Brian Cromie 51 Maumee OH 25:32 8:13
26 7248 Dan Sechrist 51 Whitehouse OH 25:38 8:15
27 5683 Eric Tolles 54 Maumee OH 25:38 8:15
28 5559 Phil Hoffman 51 Helena OH 25:39 8:16
29 4010 Bill Defalco 51 Northwood OH 25:52 8:20
30 5039 Jim Williams 51 Toledo OH 25:53 8:20
31 4909 Paul McGowan 52 Holland OH 25:53 8:20
32 5002 Tim Ellenberger 51 Fremont OH 26:00 8:22
33 7005 Jim Turissini 54 Maumee OH 26:00 8:23
34 5472 David Pakulski 51 Toledo OH 26:03 8:23
35 5714 Jake Jagos 54 Toledo OH 26:12 8:26
36 7190 Scott Lawson 51 Toledo OH 26:12 8:26
37 5310 Richard Bradfield 54 Sylvania OH 26:25 8:31
38 6507 John Mangas 50 Toledo OH 26:33 8:33
39 5292 Jim Lau 54 Millbury OH 26:34 8:33
40 5660 Bob Bethel 54 Maumee OH 26:35 8:34
41 5324 John Graham 51 Toledo OH 26:36 8:34
42 6204 Phil Wenig 50 Bowling Green OH 27:08 8:44
43 4657 Jim Lamm 53 Toledo OH 27:09 8:45
44 4156 Keith Lawn 54 Temperance MI 27:24 8:50
45 6321 Patrick Sheehan 53 Toledo OH 27:26 8:50
46 4530 Michael Miller 54 Toledo OH 27:26 8:50
47 5286 Martin Allen 50 Sylvania OH 27:47 8:57
48 4761 David Biel 51 Rossford OH 27:53 8:59
49 6828 Frank Marsico 54 Kenton OH 27:57 9:00
50 7232 Tracy Methena 50 Bowling Green OH 28:07 9:03
51 4704 Michael Pauken 50 Sylvania OH 28:16 9:06
52 6014 Craig Newberg 54 Monclova OH 28:25 9:09
53 4528 Rickey Jason 53 Toledo OH 28:29 9:10
54 6923 Dennis Roberts 53 Toledo OH 28:38 9:13
55 5817 Rick Rattay 52 Maumee OH 28:44 9:15
56 6804 George Evanoff 52 Millbury OH 28:59 9:20
57 5295 Murry Mercier 53 Maumee OH 29:10 9:24
58 5035 Jim Warren 54 Alvada OH 29:25 9:29
59 6137 David Dick 52 Whitehouse OH 29:28 9:29
60 4547 Mark Feldstein 51 Toledo OH 29:42 9:34
61 4523 Scott Smith 53 Fremont OH 30:04 9:41
62 7061 Brett Decker 53 Waterville OH 30:23 9:47
63 4522 Bruce Schaefer 54 Temperance MI 30:29 9:49
64 4513 Jim Gilbert 54 Sylvania OH 30:38 9:52
65 6678 Kevin Falls 51 Ida MI 31:24 10:07
66 6350 Kim Armstrong 52 Sylvania OH 31:37 10:11
67 6160 Tim Brown 51 Sylvania OH 31:42 10:12
68 7069 Charles Frey 53 Toledo OH 31:49 10:15
69 5156 John Johnson 51 Waterville OH 32:11 10:22
70 6114 Daniel Bare 53 Napoleon OH 32:19 10:24
71 6700 Robert Reiter 54 Sylvania OH 32:22 10:25
72 5242 Bob Turco 54 Sylvania OH 32:36 10:30
73 4475 Tom Metzger 54 Maumee OH 32:40 10:31
74 7295 Mike Remer 53 Swanton OH 33:13 10:42
75 5285 Russ Allan 54 Toledo OH 33:50 10:54
76 6371 Barbara Gibson 50 Wauseon OH 35:10 11:19
77 5028 William Sholl 53 Toledo OH 35:32 11:27
78 4635 Rick Vitte 51 Helena OH 35:43 11:30
79 6875 Doug Wright 51 Lambertville MI 35:59 11:35
80 4436 David Woodring 51 Sherwood OH 37:22 12:02
81 4645 Jeffrey Bernthisel 50 Whitehouse OH 39:19 12:40
82 6681 Brent Gibson 50 Wauseon OH 39:42 12:47
83 5815 John Jennings 54 Wauseon OH 39:59 12:52
84 7087 Ted Stone 54 Toledo OH 40:05 12:54
85 6722 Kevin Murnen 50 Toledo OH 44:52 14:27
86 4762 Tim Brown 53 Rossford OH 49:30 15:56
87 4352 Frederick Funk 51 Toledo OH 50:51 16:22
88 4331 Bob Nowacki 51 Oregon OH 1:12:37 23:23
89 4996 Steve Ball 50 Temperance MI 1:15:25 24:17



FEMALE AGE GROUP: 50-54
Place No. Name Age City St Time Pace
===== ===== ====================== === =============== == ======= =====
1 4929 Kelly Jewell 52 Lambertville MI 22:12 7:09
2 4660 Jennifer Miller 51 Toledo OH 23:08 7:27
3 4713 Kathy Stewart 54 Temperance MI 24:01 7:44
4 5391 Jan Lehman 50 Rossford OH 24:15 7:49
5 6102 Becky Sechrist 50 Whitehouse OH 25:35 8:14
6 5102 Rebecca Anderson 52 Port Clinton OH 25:44 8:17
7 4258 Teresa Jones 51 Tiffin OH 25:59 8:22
8 5603 Joyce Aughenbaugh 53 Sylvania OH 26:01 8:23
9 5452 Joanne Rush 50 Toledo OH 26:02 8:23
10 6772 Becky Hiller-Mccluer 50 Whitehouse OH 26:23 8:30
11 5806 Cindy Rerucha 52 Toledo OH 27:04 8:43
12 7244 Karo Vose 53 Toledo OH 27:08 8:44
13 6580 Marianna Fortress 53 Perrysburg OH 27:35 8:53
14 5871 Terri Dojcsak 51 Temperance MI 27:41 8:55
15 4723 Cyndi Whitcraft 51 Perrysburg OH 28:04 9:02
16 6492 Judy Indorf 53 Oregon OH 28:22 9:08
17 229 Joann Boyk 52 Toledo OH 28:30 9:11
18 5794 Laura Leventhal 54 Bowling Green OH 28:31 9:11
19 6537 Phyllis Short 50 Monclova OH 29:15 9:25
20 5874 Teri Grieselding 52 Maumee OH 29:19 9:27
21 5109 Kim Ellenberger 50 Fremont OH 29:29 9:30
22 6595 Lynn Hoehn 51 Perrysburg OH 29:33 9:31
23 6411 Debbie Powers 50 Toledo OH 29:39 9:33
24 4773 Melanie Navarre 52 Toledo OH 29:40 9:33
25 5570 Lisa Kohler 50 Perrysburg OH 29:54 9:38
26 4867 Kimberly Mussman 52 Sylvania OH 29:56 9:38
27 237 Dee Newman 54 Toledo OH 30:11 9:43
28 4468 Susan Hojnacki 51 Sylvania OH 30:15 9:45
29 5200 Cindy Bodziak 50 Toledo OH 30:15 9:45
30 6387 Barb Kesselmayer 51 Toledo OH 30:18 9:45
31 6259 Kathy Besgrove 51 Oregon OH 30:31 9:50
32 5421 Amy Whitehead 51 Holland OH 30:41 9:53
33 6281 Laurie Liebich 50 Perrysburg OH 30:42 9:53
34 6950 Erin Bilski 52 Perrysburg OH 30:52 9:56
35 4940 Karyl Stoner 52 Oak Harbor OH 31:11 10:02
36 6227 Catherine Lewis 53 Oak Harbor OH 31:11 10:03
37 5926 Carol Krauss 50 Wauseon OH 31:22 10:06
38 5529 Stephanie White 50 Petersburg MI 31:33 10:10
39 6582 Liz Fuller 51 Sylvania OH 31:42 10:12
40 222 Madeline Wilson 50 Southfield MI 31:47 10:14
41 5447 Kay Messinger 52 Whitehouse OH 31:51 10:15
42 6170 Victoria Gassner 51 Toledo OH 31:56 10:17
43 239 Victoria Haidet 50 Sylvania OH 31:59 10:18
44 7036 Sharon Dippman 52 Waterville OH 32:07 10:21
45 6009 Linda MacRitchie 53 Oak Harbor OH 32:20 10:25
46 7213 Amy Hurley 51 Sylvania OH 32:27 10:27
47 6047 Jackie Heil 54 Holland OH 32:34 10:29
48 7195 Celia Soto 52 Toledo OH 32:36 10:30
49 4476 Anita Metzger 51 Maumee OH 32:40 10:31
50 4520 Larry Reed 53 Kalamazoo MI 32:41 10:32
51 258 Liza Syvert 51 Toledo OH 32:50 10:34
52 5717 Eileen Rattay 52 Maumee OH 33:04 10:39
53 5138 Jill Sholl 53 Toledo OH 33:07 10:40
54 7101 Teresa Keefe 50 Toledo OH 33:07 10:40
55 4591 Cheryl Riffner 50 Bowling Green OH 33:10 10:41
56 5542 Elizabeth Dionisi 50 Dearborn MI 33:14 10:42
57 6453 Irene Blessing 53 Toledo OH 33:29 10:47
58 6051 Debbie Ketcham 54 Toledo OH 33:53 10:55
59 5737 Sue Futey 50 Toledo OH 33:53 10:55
60 4218 Jill Wonderly 53 Sherwood OH 33:55 10:55
61 4245 Julie Diver 52 Deerfield MI 34:15 11:02
62 6959 Dawn Belzune 51 Maumee OH 34:15 11:02
63 214 Theresa Wise 51 Tiffin OH 34:22 11:04
64 6054 Jeri Lathrop 51 Perrysburg OH 34:50 11:13
65 6336 Julie Graham 53 Toledo OH 34:54 11:14
66 6883 Kathy Mannon 50 Millbury OH 35:12 11:20
67 4802 Louann Weis 54 Perrysburg OH 35:25 11:24
68 5724 Elizabeth P Steele 51 Grand Rapids OH 35:37 11:28
69 7102 Kim Ellis 54 Sylvania OH 35:46 11:31
70 6862 Shari Bachelder 53 Fremont OH 35:46 11:31
71 243 Molly Meyers 54 Toledo OH 35:49 11:32
72 6039 Elizabeth Fowler 54 Whitehouse OH 35:59 11:35
73 5325 Mary Kate Hafemann 52 Toledo OH 36:16 11:41
74 6540 Lynette Smith 53 Wauseon OH 36:18 11:41
75 301 Lisa Ellerbruck 51 Ottawa OH 36:58 11:54
76 4566 Mary Ann Bernath 54 Swanton OH 37:27 12:04
77 4961 Deb Rasmusson 52 Toledo OH 37:45 12:09
78 4399 Deb Heban 54 Rossford OH 38:06 12:16
79 268 Jeanne Prater 54 Grand Rapids OH 38:32 12:25
80 6002 Trina Hagemyer 50 Custar OH 39:11 12:37
81 5216 Debbie Ronda 53 Toledo OH 39:17 12:39
82 4777 Deb Schultz 51 Woodville OH 39:58 12:52
83 6517 Malavika Melkote 53 Bowling Green OH 40:12 12:57
84 5532 Kyle Armstrong 52 Sylvania OH 40:17 12:58
85 4638 Cookie Wisniewski 54 Adrian MI 40:35 13:04
86 4887 Brenda Schwind 52 Perrysburg OH 41:00 13:12
87 6413 Laura Quigley-Wysock 50 Toledo OH 41:03 13:13
88 4123 Carol Forbes 53 Wauseon OH 42:12 13:35
89 4796 Karen Okonta 51 Toledo OH 42:15 13:36
90 4071 Maricarol Torsok 53 Oregon OH 42:24 13:39
91 213 Kathy Royer 54 Greenville OH 44:11 14:14
92 4646 Laura Biel 50 Rossford OH 45:34 14:40
93 6133 Kathleen Sworden 52 Napoleon OH 45:47 14:45
94 4681 Tonya Duncil 50 Carleton MI 46:17 14:54
95 5094 Lou Anne Warren 53 Alvada OH 46:46 15:03
96 5053 Laurie Dembicki 50 Pemberville OH 47:08 15:11
97 6405 Shawn Multhauf 51 Swanton OH 48:35 15:39
98 5777 Nancy Condon 51 Swanton OH 49:03 15:48
99 4798 Diane Pfaff 50 Toledo OH 51:29 16:35
100 5032 Karen Sullivan 52 Norwalk OH 52:09 16:48
101 6317 Lisa Parker 51 Toledo OH 54:05 17:25
102 4030 Rebecca Hilvers 53 Napoleon OH 54:55 17:41
103 5729 Stacey Blanton 53 Lambertville MI 59:38 19:12
104 210 Amie Klingler 53 Defiance OH 1:02:59 20:17
105 4710 Debbie Shufeldt 54 Toledo OH 1:03:51 20:34
106 4356 Barbara Miller 50 Bellevue OH 1:04:49 20:52
107 6664 Lisa Adair 51 Temperance MI 1:05:18 21:01
108 4228 Juliana Bright 51 Toledo OH 1:10:47 22:47
109 4636 Cheryl Wendt 53 Fremont OH 1:10:48 22:48
110 204 Julie Nowacki 50 Oregon OH 1:12:39 23:23
111 6801 Meg Milano 51 Temperance MI 1:15:00 24:09
112 5540 Janis Chamberlin 53 Delta OH 1:15:44 24:23
113 4652 Virginia Goodrich 51 Toledo OH 1:20:55 26:03
114 5396 Karen Mitchell 51 Toledo OH 1:21:04 26:06
115 206 Peggy Anderson 53 Holland OH 1:22:37 26:36
116 4450 Kathy Rachuba 53 Toledo OH 1:26:14 27:46
117 7270 Sharon Adlington 51 Sylvania OH 1:29:25 28:47



MALE AGE GROUP: 55-59
Place No. Name Age City St Time Pace
===== ===== ====================== === =============== == ======= =====
1 5869 Gregory Dahlin 56 Livonia MI 22:19 7:11
2 5000 Harold Conner 55 Liberty Center OH 22:21 7:12
3 6753 Marty Almester 55 Rossford OH 23:26 7:33
4 6867 Jim McCurdy 56 Sherwood OH 24:22 7:51
5 4585 Armando Hernandez 56 Findlay OH 24:39 7:57
6 4850 Michael Mussman 58 Sylvania OH 24:55 8:02
7 5409 Randy Sroczynski 55 Toledo OH 24:58 8:03
8 5378 Tom Gephart 57 Dundee MI 25:21 8:10
9 6757 Thomas Giffin 56 Toledo OH 25:22 8:10
10 4000 Dan Barnett 56 Holland OH 25:25 8:11
11 5936 Ed Osborne 57 Toledo OH 25:36 8:15
12 4525 James Szakovits 55 Toledo OH 26:05 8:24
13 4479 Michael Podracky 58 Toledo OH 26:27 8:31
14 6158 Charles Bollinger 59 Berkey OH 26:37 8:34
15 7290 Barry Quattromani 56 Toledo OH 26:37 8:34
16 5861 Noel Wendt 55 Toledo OH 26:45 8:37
17 6871 Anthony Szulaguy 58 Rossford OH 26:49 8:38
18 6693 Neil McKinstray 58 Perrysburg OH 26:56 8:40
19 5685 Mike Zychowicz 55 Toledo OH 27:14 8:46
20 5199 Steven Bires 56 Toledo OH 27:17 8:47
21 4332 Tom Obermyer 59 Petersburg MI 27:22 8:49
22 4691 Tim Hiltner 56 Pemberville OH 27:24 8:50
23 5844 Bob Michalak 57 Petersburg MI 27:34 8:53
24 6695 Stan Multhauf 55 Swanton OH 27:52 8:59
25 4835 Jerry Graver 55 Perrysburg OH 28:28 9:10
26 4658 Marc Levin 56 Toledo OH 28:31 9:11
27 5249 Kerry Bruce 59 Toledo OH 29:05 9:22
28 6799 David Brown 56 Perrysburg OH 29:11 9:24
29 6888 Ron Bick 55 Maumee OH 29:53 9:37
30 6879 Keith Wilkowski 55 Toledo OH 29:53 9:38
31 4766 Jonathan Detrick 59 Maumee OH 29:57 9:39
32 4414 Thomas Sanders 57 Bowling Green OH 29:59 9:39
33 6840 Dave Cox 55 Perrysburg OH 30:00 9:40
34 5597 Skip Spieker 59 Sylvania OH 30:12 9:44
35 6313 Doug Haynam 56 Sylvania OH 30:12 9:44
36 4126 Rick Frame 58 Toledo OH 30:21 9:46
37 5750 Mike Kiel 55 Perrysburg OH 30:22 9:47
38 4461 Alfred Dannhauser 58 Perrysburg OH 30:37 9:51
39 6870 Mark Sobczak 55 Toledo OH 30:38 9:52
40 5843 Steve Leblanc 56 Toledo OH 30:49 9:56
41 5547 George Gibson 55 Holland OH 31:17 10:05
42 7099 Charles Nearhood 55 Toledo OH 31:26 10:07
43 7204 Donald Hulbert 55 Petersburg MI 32:01 10:19
44 7287 Marty Lahey 58 Toledo OH 32:34 10:29
45 4905 Kevin Koffel 58 Perrysburg OH 32:56 10:36
46 5319 Joseph Eagen 56 Marysville MI 33:04 10:39
47 5168 Peter Silverman 55 Toledo OH 33:27 10:46
48 5320 Bob Ehret 56 Clyde OH 34:47 11:12
49 4795 Henry Okonta 55 Toledo OH 34:55 11:15
50 6874 Steven Lantzy 59 Tecumseh MI 34:57 11:15
51 6692 Gary Mather 57 Northwood OH 35:54 11:34
52 5514 Karl Luketic 57 Maumee OH 36:20 11:42
53 4518 Russell Mead 55 Blissfield MI 36:54 11:53
54 7285 Roger Bell 57 Toledo OH 38:03 12:15
55 5299 James Seiwert 58 Waterville OH 40:53 13:10
56 4990 Gary Wright 59 Toledo OH 42:09 13:34
57 7043 Steven Peseckis 55 Toledo OH 42:56 13:50
58 5478 Larry Wasserman 55 Martin OH 46:22 14:56
59 4221 Steven Ziegler 57 Sylvania OH 1:07:00 21:34
60 4767 Rich Exner 59 Bowling Green OH 1:13:02 23:31
61 4519 Mike Rachuba 56 Toledo OH 1:26:14 27:46
62 5180 Brad Towns 55 Sylvania OH 1:39:07 31:55



FEMALE AGE GROUP: 55-59
Place No. Name Age City St Time Pace
===== ===== ====================== === =============== == ======= =====
1 4237 Debra Cousino 55 Bowling Green OH 23:06 7:26
2 5449 Betty Newton 58 Curtice OH 25:45 8:18
3 4789 Bridget Holt 57 Maumee OH 26:14 8:27
4 4282 Cheri Salsbury 57 Bryan OH 26:35 8:34
5 6951 Gary Bilski 55 Perrysburg OH 27:13 8:46
6 5347 Dian Teschke 55 Bryan OH 27:36 8:53
7 5387 Deborah Karl 55 Maumee OH 27:45 8:56
8 5687 Almeda Dunston 59 Toledo OH 27:50 8:58
9 6947 Hilary White 55 Holland OH 28:31 9:11
10 4243 Lori Davis 55 Toledo OH 28:57 9:19
11 4022 Mary Jo Frame 55 Toledo OH 28:58 9:20
12 5610 Louise Brescol 56 Toledo OH 29:02 9:21
13 4141 Melissa Hill 56 Maumee OH 29:08 9:23
14 5428 Marilyn Agee 55 Sylvania OH 29:36 9:32
15 236 Kris Obliske 56 Toledo OH 30:01 9:40
16 4509 Archetta Smith 58 Carleton MI 30:03 9:41
17 6449 Mary Badyna 55 Toledo OH 30:10 9:43
18 5567 Linda Jurkiewicz 59 Blissfield MI 30:19 9:46
19 5326 Terri Hamilton 57 Rossford OH 30:29 9:49
20 230 Eileen Riffer 55 Perrysburg OH 30:35 9:51
21 6460 Debbie Clark 58 Oregon OH 30:50 9:56
22 4508 Linda Shaw 58 Sylvania OH 30:54 9:57
23 4276 Camille Pristash 57 Sylvania OH 30:57 9:58
24 4617 Heather Obert 59 Toledo OH 31:27 10:08
25 5230 Gail Lippert 56 Rossford OH 31:29 10:08
26 4051 Tia Meyer 57 Curtice OH 31:52 10:16
27 4240 Adele Dahlin 58 Toledo OH 32:01 10:19
28 5244 Linda Wilson 56 Lambertville MI 32:16 10:24
29 6036 Patricia Fisher 59 Petersburg MI 33:35 10:49
30 4800 Camille Sciplin 58 Toledo OH 34:02 10:58
31 5829 Nancy Ovens 56 Maumee OH 34:14 11:02
32 5783 Paula Ehret 57 Clyde OH 35:17 11:22
33 5377 Gail Freshour 55 Toledo OH 35:18 11:22
34 6476 Janet Fudge 56 Sylvania OH 35:37 11:28
35 4291 Cheryl Trace 55 Toledo OH 35:40 11:29
36 251 Patty Luketic 55 Maumee OH 36:12 11:40
37 4992 Coleen Shaw 59 Maumee OH 36:37 11:47
38 4840 Audrey Weis-Maag 57 Toledo OH 36:51 11:52
39 5373 Debbie Eagen 56 Marysville MI 37:32 12:05
40 6070 Tina Wells 57 Lambertville MI 38:26 12:23
41 4984 Dawn Wright 57 Toledo OH 38:44 12:28
42 272 Virginia Hiltner 57 Sylvania OH 39:14 12:38
43 5860 Luanne Welch 55 Toledo OH 39:21 12:40
44 5217 Kathleen Seiwert 57 Waterville OH 40:54 13:10
45 7198 Kathy Schrader 56 Toledo OH 40:56 13:11
46 5681 Maureen Sullivan 58 Oregon OH 45:07 14:32
47 4892 Corrine Sullivan 58 Groveport OH 45:08 14:32
48 245 Kathy Nagypaul 58 Sylvania OH 46:19 14:55
49 4435 Susan Jaros 57 Rossford OH 47:33 15:19
50 5086 Marcia Silverman 55 Toledo OH 48:51 15:44
51 7249 Pat Hanna 56 Toledo OH 50:27 16:15
52 4757 Tanna Walsh 57 Sylvania OH 52:07 16:47
53 5733 Debra Crawford 55 Oregon OH 53:03 17:05
54 4598 Agnes Swint 55 Ottoville OH 54:00 17:23
55 5667 Mary Keiser 59 Fremont OH 57:06 18:23
56 262 Nancyt Linker 55 Monclova OH 57:49 18:37
57 4602 Cynthia Wilkinson 57 Toledo OH 59:12 19:04
58 5375 Micki Evans 58 Toledo OH 1:00:30 19:29
59 4906 Kathy Kuyoth 57 Toledo OH 1:00:34 19:30
60 4830 Paula Basch 59 Sylvania OH 1:00:56 19:37
61 5893 Elizabeth Roth 56 Maumee OH 1:06:08 21:17
62 7162 Marilyn Miller 55 Toledo OH 1:06:50 21:31
63 4851 Michelle Oshea 57 Toledo OH 1:11:15 22:56
64 4568 Bonnie Bollett 56 Waterville OH 1:11:16 22:57
65 6613 Cindy Morey 56 Toledo OH 1:12:10 23:14
66 5495 Barbara Chio 55 Toledo OH 1:14:35 24:01
67 4324 Sandra Krzysiak 56 Toledo OH 1:22:12 26:28
68 5078 Darlene Portnoy 55 Toledo OH 1:25:22 27:29
69 6715 Walker #2 55 Oregon OH 1:26:44 27:55
70 6714 Walker #1 58 Oregon OH 1:26:47 27:56
71 5223 Barb Chio 56 Martin OH 1:28:10 28:23
72 4110 Barbara Deerwester 56 Mount Blanchard OH 1:33:13 30:01
73 5153 Mary Gorman 55 Toledo OH 1:39:03 31:53



MALE AGE GROUP: 60-64
Place No. Name Age City St Time Pace
===== ===== ====================== === =============== == ======= =====
1 6191 Steve Noblet 61 Grand Rapids OH 22:27 7:14
2 6498 David Koelsch 64 Toledo OH 22:30 7:15
3 4315 John Flahie 62 Monclova OH 22:56 7:23
4 6436 Gary Valentine 63 Delta OH 23:17 7:30
5 5211 Daniel Marschal 60 Northwood OH 24:58 8:02
6 6398 Tom Lytle 60 Oregon OH 25:02 8:04
7 5413 Robert Tadayesky 62 Waterville OH 25:40 8:16
8 5399 John Newton 63 Curtice OH 25:41 8:16
9 4178 Alexander Pavlovsky 64 Ann Arbor MI 26:01 8:23
10 5513 David Koester 64 Temperance MI 26:10 8:26
11 6916 Paul Stark 60 Toledo OH 26:25 8:31
12 7208 Terry Myers 64 Maumee OH 26:50 8:39
13 4780 Paul Whitcraft 60 Perrysburg OH 26:58 8:41
14 4904 Frank Knakiewicz 61 Lambertville MI 27:25 8:50
15 4080 Gilbert Wilson 61 Toledo OH 27:30 8:51
16 5329 Terry Konz 60 Sylvania OH 27:55 8:59
17 4077 Raymond Villegas 60 Maumee OH 28:03 9:02
18 4601 James Wehrman 60 Urbana OH 29:17 9:26
19 6833 Robert Rosales 62 Genoa OH 29:22 9:28
20 4142 George Ho 60 Oregon OH 29:41 9:34
21 5327 James Jones 63 Sylvania OH 29:59 9:39
22 7047 Pat Wagner 60 Toledo OH 30:13 9:44
23 4348 Charles Wittenberg 64 Toledo OH 30:14 9:44
24 6755 James Secor 61 Perrysburg OH 31:13 10:03
25 6157 Glen Blohm 60 Sylvania OH 31:20 10:05
26 7196 Robert Lopez 60 Toledo OH 31:42 10:13
27 5154 Jeff Haidet 61 Sylvania OH 31:59 10:18
28 5545 Max Funk 61 Toledo OH 32:01 10:19
29 7212 Gary Ovens 60 Maumee OH 32:18 10:24
30 4016 Paul Erhardt 63 Sylvania OH 33:28 10:47
31 4313 Larry Farley 60 Berkey OH 34:38 11:09
32 4121 Robert Fisher 61 Toledo OH 34:46 11:12
33 5957 Edward Ciecka 62 Rossford OH 35:08 11:19
34 5847 Mike Pienta 63 Temperance MI 35:15 11:21
35 4899 Alan Colwell 64 Toledo OH 36:36 11:47
36 5965 William Kilby 64 Toledo OH 37:07 11:57
37 4516 Kris Kostrzewski 60 Sylvania OH 37:47 12:10
38 5317 Clare Conrad 64 Toledo OH 37:57 12:13
39 6945 Jim Hiltner 61 Sylvania OH 40:43 13:07
40 6885 David Shriner 62 Toledo OH 42:58 13:50
41 6671 Lewis Collins 63 Toledo OH 53:06 17:06
42 4320 Jay Hunston Jr 62 Stuart FL 1:22:40 26:37
43 5477 Thomas Simon 62 Oregon OH 1:27:43 28:14
44 6119 Joel Hansen 62 Perrysburg OH 1:33:28 30:05



FEMALE AGE GROUP: 60-64
Place No. Name Age City St Time Pace
===== ===== ====================== === =============== == ======= =====
1 4346 Susan Todd 61 Toledo OH 22:40 7:18
2 4253 Kay Heinrichs 64 Toledo OH 26:12 8:26
3 5019 Janna Lake 60 Toledo OH 27:23 8:49
4 4222 Janine Avila 61 Perrysburg OH 27:43 8:55
5 5398 Rosie Moreno 64 Fremont OH 27:51 8:58
6 5007 Sheryl Gray 63 Wolcottville IN 28:34 9:12
7 5359 Sharon Berkoben 64 Perrysburg OH 30:16 9:45
8 5734 Peggy Evens 60 Maumee OH 30:20 9:46
9 4559 Joy Price 61 Toledo OH 31:48 10:14
10 5098 Ruby Williams 63 Toledo OH 33:21 10:44
11 5271 Kay Nickelsen 64 Woodville OH 33:42 10:51
12 5426 Nancy Zemenski 61 Northwood OH 33:49 10:53
13 4827 Bertie Simcox 61 Toledo OH 37:25 12:03
14 4808 Mary Durfey 63 Toledo OH 38:35 12:25
15 6101 Nancy Schroder 64 Findlay OH 38:41 12:27
16 5410 Beverly St Clair 62 Sylvania OH 38:55 12:32
17 7258 Jan Menzie 61 Toledo OH 40:26 13:01
18 5315 Susan Burns 63 Montpelier OH 40:43 13:07
19 5602 Genie Wiles 64 Perrysburg OH 42:16 13:37
20 6409 Grace Peterson 62 Toledo OH 43:25 13:59
21 4545 Sharon Elchert 61 Fostoria OH 44:19 14:16
22 4354 Ramona Jenkins 64 Toledo OH 44:32 14:20
23 4898 Cheryll Carroll 62 Port Clinton OH 46:46 15:03
24 242 Lyn Benavides 60 Findlay OH 49:59 16:06
25 5209 Marilyn Kihm 61 Bluffton OH 56:16 18:07
26 4116 Sandy Esser 62 Maumee OH 1:00:53 19:36
27 4666 Susan Rupert 60 Fostoria OH 1:02:59 20:17
28 5983 Althea Baldwin 62 Toledo OH 1:04:23 20:44
29 6163 Denise Cardwell 61 Toledo OH 1:04:29 20:46
30 5402 Sue Parkins Camero 61 Perrysburg OH 1:11:18 22:57
31 201 Cynthia Champer 62 Toledo OH 1:15:05 24:10
32 4381 Jo Buttner 61 Rossford OH 1:21:33 26:15
33 205 Karen Younker 62 Gibsonburg OH 1:22:09 26:27
34 4147 Jane Hunston 61 Stuart FL 1:22:43 26:38


MALE AGE GROUP: 65-69
Place No. Name Age City St Time Pace
===== ===== ====================== === =============== == ======= =====
1 5821 David Winsted 66 Toledo OH 25:48 8:18
2 6050 John Juvinall 65 Ottawa Lake MI 29:23 9:28
3 4070 Jerome Tomc 69 Toledo OH 30:56 9:58
4 5836 Cary Cooper 69 Toledo OH 33:26 10:46
5 4643 Carl Anderson 69 Monclova OH 35:49 11:32
6 7216 Robert Oconnor 66 Toledo OH 36:53 11:53
7 5470 Larry Oberdorf 65 Rossford OH 37:24 12:03
8 5530 Thomas Wiles 69 Perrysburg OH 42:15 13:36
9 5688 Edward Extine 67 Toledo OH 53:41 17:17
10 5984 Samuel Baldwin 69 Toledo OH 1:03:25 20:25



FEMALE AGE GROUP: 65-69
Place No. Name Age City St Time Pace
===== ===== ====================== === =============== == ======= =====
1 7057 Barbara Lindeman 69 Oregon OH 28:01 9:01
2 4863 Nella Harnishfeger 68 Grand Rapids OH 33:06 10:39
3 255 Carol Hall 66 Maumee OH 33:08 10:40
4 4945 Anne Burnham 67 Toledo OH 36:00 11:36
5 5631 Katharine Hurst 67 Perrysburg OH 53:54 17:21
6 5014 Ireatha Hollie 67 Toledo OH 1:19:01 25:26
7 6068 Sue Toczynski 66 Toledo OH 1:36:04 30:56


MALE AGE GROUP: 70-99
Place No. Name Age City St Time Pace
===== ===== ====================== === =============== == ======= =====
1 5987 Ron Brant 73 Sylvania OH 27:46 8:56
2 7094 Peter Siedentop 76 Oregon OH 29:04 9:22
3 7177 Marieh Rich 70 Maumee OH 30:01 9:40
4 5308 Gerald Bazer 73 Toledo OH 31:21 10:06
5 7259 George Royer 75 Toledo OH 32:43 10:32
6 5494 Bernard Cherry 79 Oregon OH 33:32 10:48
7 4895 Tom Althoff 71 Grand Rapids OH 34:02 10:58
8 4693 Paul Hotmer 80 Toledo OH 44:43 14:24
9 7137 James Fagerstrom 72 Perrysburg OH 44:53 14:27
10 6972 Robert Morey 71 Maumee OH 45:34 14:40
11 5467 Bill Miller 71 Toledo OH 59:20 19:06


FEMALE AGE GROUP: 70-99
Place No. Name Age City St Time Pace
===== ===== ====================== === =============== == ======= =====
1 6302 Jessica Sucheck 99 Maumee OH 29:11 9:24
2 5767 Lynda Stern 73 Sylvania OH 37:16 12:00
3 219 Theresa Marvin 71 Metamora OH 43:40 14:04
4 248 Barbara Miller 70 Toledo OH 59:20 19:06
5 4699 Mildred Musgrave 75 Doylestown OH 1:01:43 19:52
6 5473 Virginia Pinardo 71 Toledo OH 1:11:30 23:01
7 4790 Jackie Black 72 Toledo OH 1:14:41 24:03



Comments:


Upcoming Featured Races »

Reading PTO/Kerspilo 5K Run/Walk
Aug. 2- Sat
Kayla O'Mara Memorial Road Race
Aug. 2- Sat
38th Allen Park 10K Run & 5K Run/Walk
Aug. 2- Sat
Stony Creek Distance Run
Aug. 7- Thu
Run Through the Flames
Aug. 9- Sat
Summer in City 5K
Aug. 9- Sat
2014 UAW-Ford Michigan Marrow 5K
Aug. 9- Sat
Visit our Advertisers!

RunMichigan.com site contents copyright 1996-2012 | RunMichigan.com, Inc. All Rights Reserved

Contact Us | Home | Advertise with Us | Disclaimer | About Us | Submit News | Submit Race Info | Submit Results | RSS Feeds RSS FEED